KJ6MC Weather Reports


Display with metric or nautical units.
time (UTC)temp
F
wind
direction
speed
MPH
gust
MPH
rain 1hr
in
rain 24hr
in
rain mn
in
humidity
%
barometer
mb
20260903040913 69 242 4.0 9.0 0.00 0.00 0.00 63 1014.8
20260903040908 69 236 4.0 9.0 0.00 0.00 0.00 63 1014.8
20260903040808 69 201 4.0 9.0 0.00 0.00 0.00 63 1014.8
20260903040708 69 218 3.0 9.0 0.00 0.00 0.00 63 1014.7
20260903040642 69 245 3.0 9.0 0.00 0.00 0.00 63 1014.7
20260903040611 69 264 3.0 9.0 0.00 0.00 0.00 63 1014.8
20260903040532 69 238 3.0 9.0 0.00 0.00 0.00 63 1014.7
20260903040409 69 253 3.0 9.0 0.00 0.00 0.00 63 1014.7
20260903040309 69 256 3.0 8.0 0.00 0.00 0.00 62 1014.7
20260903040208 69 222 3.0 8.0 0.00 0.00 0.00 62 1014.7
20260903040109 69 217 3.0 8.0 0.00 0.00 0.00 62 1014.7
20260903040003 69 210 3.0 7.0 0.00 0.00 0.00 63 1014.7
20260903035913 69 269 3.0 7.0 0.00 0.00 0.00 63 1014.7
20260903035903 69 226 3.0 7.0 0.00 0.00 0.00 63 1014.7
20260903035800 69 255 3.0 7.0 0.00 0.00 0.00 62 1014.6
20260903035700 69 239 3.0 7.0 0.00 0.00 0.00 62 1014.6
20260903035605 69 250 3.0 8.0 0.00 0.00 0.00 62 1014.6
20260903035500 69 256 3.0 8.0 0.00 0.00 0.00 62 1014.6
20260903035414 69 212 3.0 8.0 0.00 0.00 0.00 62 1014.6
20260903035400 69 193 3.0 8.0 0.00 0.00 0.00 62 1014.6
20260903035300 69 239 3.0 10.0 0.00 0.00 0.00 62 1014.6
20260903035200 69 239 3.0 10.0 0.00 0.00 0.00 62 1014.5
20260903035112 70 257 3.0 10.0 0.00 0.00 0.00 62 1014.5
20260903035108 70 274 3.0 10.0 0.00 0.00 0.00 62 1014.5
20260903034911 70 243 3.0 10.0 0.00 0.00 0.00 62 1014.4
20260903034858 70 232 3.0 10.0 0.00 0.00 0.00 62 1014.4
20260903034758 70 250 3.0 10.0 0.00 0.00 0.00 62 1014.5
20260903034658 70 232 3.0 10.0 0.00 0.00 0.00 62 1014.4
20260903034558 70 233 3.0 10.0 0.00 0.00 0.00 62 1014.5
20260903034456 70 280 3.0 10.0 0.00 0.00 0.00 61 1014.4
20260903034408 70 235 3.0 10.0 0.00 0.00 0.00 61 1014.4
20260903034402 70 238 2.0 8.0 0.00 0.00 0.00 61 1014.4
20260903034356 70 221 3.0 10.0 0.00 0.00 0.00 61 1014.4
20260903034256 70 239 3.0 8.0 0.00 0.00 0.00 61 1014.4
20260903034246 70 232 2.0 8.0 0.00 0.00 0.00 61 1014.3
20260903034054 70 263 2.0 8.0 0.00 0.00 0.00 61 1014.3
20260903034018 70 262 2.0 8.0 0.00 0.00 0.00 61 1014.4
20260903033854 70 246 2.0 8.0 0.00 0.00 0.00 61 1014.4
20260903033752 70 241 2.0 8.0 0.00 0.00 0.00 61 1014.3
20260903033653 70 222 2.0 8.0 0.00 0.00 0.00 61 1014.2
20260903033552 70 230 1.0 8.0 0.00 0.00 0.00 61 1014.3
20260903033452 70 243 1.0 5.0 0.00 0.00 0.00 61 1014.3
20260903033408 70 246 1.0 5.0 0.00 0.00 0.00 61 1014.2
20260903033355 70 253 1.0 5.0 0.00 0.00 0.00 61 1014.2
20260903033346 70 229 1.0 6.0 0.00 0.00 0.00 60 1014.2
20260903033252 70 231 1.0 5.0 0.00 0.00 0.00 60 1014.2
20260903033238 70 225 1.0 5.0 0.00 0.00 0.00 60 1014.2
20260903033049 70 256 1.0 5.0 0.00 0.00 0.00 60 1014.2
20260903033019 70 250 1.0 5.0 0.00 0.00 0.00 60 1014.2
20260903032846 70 235 1.0 6.0 0.00 0.00 0.00 60 1014.2
20260903032747 70 239 1.0 6.0 0.00 0.00 0.00 60 1014.2
20260903032647 70 204 1.0 6.0 0.00 0.00 0.00 60 1014.2
20260903032551 70 204 1.0 6.0 0.00 0.00 0.00 59 1014.1
20260903032444 70 246 1.0 6.0 0.00 0.00 0.00 59 1014.1
20260903032407 70 246 1.0 6.0 0.00 0.00 0.00 59 1014.1
20260903032344 71 245 1.0 6.0 0.00 0.00 0.00 59 1014.1
20260903032244 71 228 2.0 6.0 0.00 0.00 0.00 59 1014.1
20260903032145 71 242 2.0 6.0 0.00 0.00 0.00 59 1014.2
20260903032044 71 241 2.0 6.0 0.00 0.00 0.00 59 1014.1
20260903031945 71 238 2.0 6.0 0.00 0.00 0.00 59 1014.1
20260903031918 71 248 2.0 6.0 0.00 0.00 0.00 59 1014.1
20260903031844 71 267 2.0 6.0 0.00 0.00 0.00 59 1014.1
20260903031744 71 233 2.0 6.0 0.00 0.00 0.00 58 1014.1
20260903031645 71 232 2.0 6.0 0.00 0.00 0.00 58 1014.1
20260903031542 71 269 2.0 6.0 0.00 0.00 0.00 58 1014.0
20260903031442 71 290 2.0 5.0 0.00 0.00 0.00 58 1014.1
20260903031405 71 250 2.0 5.0 0.00 0.00 0.00 58 1014.0
20260903031342 71 233 2.0 5.0 0.00 0.00 0.00 58 1014.0
20260903031240 71 228 1.0 5.0 0.00 0.00 0.00 58 1014.0
20260903031140 71 257 1.0 4.0 0.00 0.00 0.00 57 1014.1
20260903031040 71 230 1.0 6.0 0.00 0.00 0.00 57 1014.0
20260903030940 71 246 1.0 6.0 0.00 0.00 0.00 57 1014.0
20260903030905 71 248 2.0 6.0 0.00 0.00 0.00 57 1014.0
20260903030840 71 246 2.0 6.0 0.00 0.00 0.00 57 1014.0
20260903030740 71 235 2.0 6.0 0.00 0.00 0.00 57 1014.0
20260903030642 71 266 2.0 6.0 0.00 0.00 0.00 56 1014.0
20260903030637 71 233 2.0 6.0 0.00 0.00 0.00 57 1014.0
20260903030535 71 239 2.0 6.0 0.00 0.00 0.00 56 1014.0
20260903030527 71 266 2.0 6.0 0.00 0.00 0.00 56 1014.0
20260903030335 71 286 2.0 6.0 0.00 0.00 0.00 56 1014.0
20260903030234 71 240 2.0 6.0 0.00 0.00 0.00 56 1014.0
20260903030217 72 287 1.0 7.0 0.00 0.00 0.00 55 1014.0
20260903030212 72 216 1.0 4.0 0.00 0.00 0.00 55 1014.0
20260903030209 71 243 2.0 6.0 0.00 0.00 0.00 56 1014.0
20260903030200 71 233 2.0 6.0 0.00 0.00 0.00 56 1014.0
20260903030152 71 235 2.0 7.0 0.00 0.00 0.00 56 1014.0
20260903030142 71 232 2.0 7.0 0.00 0.00 0.00 56 1014.0
20260903030136 71 252 2.0 7.0 0.00 0.00 0.00 56 1014.0
20260903030127 71 235 2.0 7.0 0.00 0.00 0.00 55 1014.0
20260903030119 72 253 2.0 7.0 0.00 0.00 0.00 55 1014.0
20260903030107 72 262 2.0 7.0 0.00 0.00 0.00 55 1014.0
20260903030057 72 238 2.0 7.0 0.00 0.00 0.00 55 1014.1
20260903030046 72 238 1.0 7.0 0.00 0.00 0.00 55 1014.0
20260903030028 72 315 1.0 7.0 0.00 0.00 0.00 55 1014.0
20260903030020 72 245 1.0 7.0 0.00 0.00 0.00 55 1014.1
20260903030011 72 236 1.0 7.0 0.00 0.00 0.00 55 1014.0
20260903025012 72 274 1.0 4.0 0.00 0.00 0.00 55 1014.1
20260903024830 72 219 1.0 4.0 0.00 0.00 0.00 55 1014.0
20260903024729 72 242 1.0 5.0 0.00 0.00 0.00 54 1014.0
20260903024629 72 233 1.0 6.0 0.00 0.00 0.00 54 1014.1
20260903024528 72 210 1.0 6.0 0.00 0.00 0.00 54 1014.1
20260903024428 72 253 1.0 6.0 0.00 0.00 0.00 54 1014.0
20260903024402 72 252 1.0 6.0 0.00 0.00 0.00 54 1014.0
20260903024326 72 300 1.0 6.0 0.00 0.00 0.00 54 1014.0
20260903024226 72 300 2.0 8.0 0.00 0.00 0.00 54 1014.1
20260903024131 72 260 2.0 8.0 0.00 0.00 0.00 54 1014.0
20260903024024 72 244 2.0 8.0 0.00 0.00 0.00 54 1014.0
20260903023925 72 194 2.0 8.0 0.00 0.00 0.00 54 1014.0
20260903023859 72 250 2.0 8.0 0.00 0.00 0.00 54 1014.1
20260903023848 72 47 2.0 8.0 0.00 0.00 0.00 53 1014.1
20260903023825 72 266 2.0 8.0 0.00 0.00 0.00 54 1014.1
20260903023734 72 246 2.0 8.0 0.00 0.00 0.00 53 1014.0
20260903023618 72 274 2.0 8.0 0.00 0.00 0.00 53 1014.0
20260903023518 72 232 2.0 8.0 0.00 0.00 0.00 53 1014.0
20260903023446 72 252 2.0 8.0 0.00 0.00 0.00 53 1014.1
20260903023401 72 47 2.0 8.0 0.00 0.00 0.00 53 1014.1
20260903023318 72 273 2.0 8.0 0.00 0.00 0.00 53 1014.1
20260903023218 72 225 2.0 5.0 0.00 0.00 0.00 53 1014.1
20260903023119 72 243 2.0 5.0 0.00 0.00 0.00 53 1014.0
20260903023018 73 249 2.0 8.0 0.00 0.00 0.00 53 1014.0
20260903022918 73 278 2.0 8.0 0.00 0.00 0.00 53 1014.1
20260903022857 73 246 2.0 8.0 0.00 0.00 0.00 53 1014.1
20260903022818 73 245 2.0 8.0 0.00 0.00 0.00 53 1014.1
20260903022718 73 270 2.0 8.0 0.00 0.00 0.00 53 1014.0
20260903022619 73 221 2.0 8.0 0.00 0.00 0.00 53 1014.1
20260903022512 73 245 2.0 8.0 0.00 0.00 0.00 53 1014.0
20260903022413 73 226 2.0 8.0 0.00 0.00 0.00 53 1014.1
20260903022357 73 226 2.0 8.0 0.00 0.00 0.00 53 1014.1
20260903022312 73 262 2.0 8.0 0.00 0.00 0.00 53 1014.1
20260903022212 73 237 2.0 8.0 0.00 0.00 0.00 53 1014.1
20260903022113 73 226 1.0 8.0 0.00 0.00 0.00 53 1014.1
20260903022012 73 274 1.0 6.0 0.00 0.00 0.00 53 1014.1
20260903022003 73 225 2.0 6.0 0.00 0.00 0.00 53 1014.1
20260903021959 73 262 2.0 5.0 0.00 0.00 0.00 53 1014.1
20260903021949 73 228 2.0 5.0 0.00 0.00 0.00 53 1014.1
20260903021828 73 225 2.0 6.0 0.00 0.00 0.00 53 1014.1
20260903021723 73 226 1.0 6.0 0.00 0.00 0.00 53 1014.1
20260903021612 73 294 1.0 6.0 0.00 0.00 0.00 52 1014.1
20260903021511 73 224 1.0 6.0 0.00 0.00 0.00 52 1014.1
20260903021409 73 260 1.0 6.0 0.00 0.00 0.00 52 1014.1
20260903021355 73 243 1.0 6.0 0.00 0.00 0.00 52 1014.1
20260903021308 73 245 1.0 6.0 0.00 0.00 0.00 53 1014.1
20260903021208 73 256 1.0 6.0 0.00 0.00 0.00 52 1014.1
20260903021109 73 211 1.0 6.0 0.00 0.00 0.00 52 1014.2
20260903021008 73 243 1.0 6.0 0.00 0.00 0.00 52 1014.2
20260903020910 73 243 1.0 6.0 0.00 0.00 0.00 52 1014.2
20260903020902 74 217 4.0 10.0 0.00 0.00 0.00 53 1014.2
20260903020855 73 229 1.0 6.0 0.00 0.00 0.00 52 1014.2
20260903020804 73 218 1.0 4.0 0.00 0.00 0.00 52 1014.1
20260903020752 74 232 3.0 9.0 0.00 0.00 0.00 53 1014.2
20260903020747 73 246 1.0 4.0 0.00 0.00 0.00 52 1014.1
20260903020634 73 231 1.0 4.0 0.00 0.00 0.00 52 1014.2
20260903020518 73 235 1.0 4.0 0.00 0.00 0.00 53 1014.2
20260903020509 74 218 1.0 6.0 0.00 0.00 0.00 53 1014.1
20260903020458 74 198 1.0 6.0 0.00 0.00 0.00 53 1014.1
20260903020349 74 291 2.0 7.0 0.00 0.00 0.00 52 1014.1
20260903020340 74 291 2.0 7.0 0.00 0.00 0.00 52 1014.2
20260903020332 74 291 3.0 7.0 0.00 0.00 0.00 53 1014.2
20260903020323 74 245 3.0 9.0 0.00 0.00 0.00 53 1014.2
20260903020315 74 232 3.0 9.0 0.00 0.00 0.00 53 1014.2
20260903015805 74 232 3.0 9.0 0.00 0.00 0.00 53 1014.2
20260903015733 74 207 4.0 9.0 0.00 0.00 0.00 53 1014.2
20260903015604 74 232 4.0 9.0 0.00 0.00 0.00 53 1014.2
20260903015511 74 263 4.0 9.0 0.00 0.00 0.00 53 1014.2
20260903015502 74 219 4.0 10.0 0.00 0.00 0.00 53 1014.2
20260903015305 74 191 4.0 10.0 0.00 0.00 0.00 53 1014.2
20260903015206 74 241 4.0 10.0 0.00 0.00 0.00 53 1014.2
20260903015111 74 248 4.0 10.0 0.00 0.00 0.00 54 1014.2
20260903015105 74 253 4.0 10.0 0.00 0.00 0.00 53 1014.3
20260903015011 74 259 4.0 10.0 0.00 0.00 0.00 54 1014.2
20260903015002 74 225 4.0 10.0 0.00 0.00 0.00 54 1014.2
20260903014758 74 245 4.0 10.0 0.00 0.00 0.00 54 1014.2
20260903014658 74 267 4.0 10.0 0.00 0.00 0.00 55 1014.3
20260903014618 74 212 3.0 10.0 0.00 0.00 0.00 55 1014.3
20260903014604 74 240 4.0 10.0 0.00 0.00 0.00 55 1014.3
20260903014511 74 222 3.0 10.0 0.00 0.00 0.00 55 1014.2
20260903014502 74 233 3.0 10.0 0.00 0.00 0.00 55 1014.3
20260903014311 74 246 2.0 10.0 0.00 0.00 0.00 55 1014.3
20260903014307 74 246 2.0 10.0 0.00 0.00 0.00 55 1014.3
20260903014054 74 222 2.0 10.0 0.00 0.00 0.00 55 1014.3
20260903013954 74 211 2.0 10.0 0.00 0.00 0.00 55 1014.3
20260903013856 74 232 2.0 6.0 0.00 0.00 0.00 55 1014.3
20260903013819 74 222 2.0 7.0 0.00 0.00 0.00 55 1014.3
20260903013814 74 295 2.0 7.0 0.00 0.00 0.00 55 1014.3
20260903013810 74 239 1.0 7.0 0.00 0.00 0.00 55 1014.3
20260903013452 74 238 3.0 8.0 0.00 0.00 0.00 55 1014.3
20260903013353 74 284 3.0 9.0 0.00 0.00 0.00 55 1014.3
20260903013252 74 221 3.0 9.0 0.00 0.00 0.00 54 1014.3
20260903013153 74 268 3.0 9.0 0.00 0.00 0.00 54 1014.4
20260903013052 74 273 3.0 9.0 0.00 0.00 0.00 55 1014.3
20260903012952 74 250 4.0 9.0 0.00 0.00 0.00 55 1014.3
20260903012854 74 248 4.0 9.0 0.00 0.00 0.00 55 1014.3
20260903012752 74 232 3.0 9.0 0.00 0.00 0.00 55 1014.3
20260903012652 74 225 3.0 9.0 0.00 0.00 0.00 55 1014.3
20260903012552 74 212 3.0 9.0 0.00 0.00 0.00 54 1014.3
20260903012453 75 190 3.0 9.0 0.00 0.00 0.00 54 1014.3
20260903012354 75 259 3.0 9.0 0.00 0.00 0.00 54 1014.3
20260903012251 75 257 2.0 9.0 0.00 0.00 0.00 54 1014.3
20260903012151 75 231 2.0 9.0 0.00 0.00 0.00 55 1014.3
20260903012050 75 281 2.0 9.0 0.00 0.00 0.00 54 1014.3
20260903011950 75 256 2.0 9.0 0.00 0.00 0.00 54 1014.3
20260903011852 75 271 1.0 8.0 0.00 0.00 0.00 55 1014.3
20260903011828 75 235 2.0 9.0 0.00 0.00 0.00 55 1014.3
20260903011750 75 278 2.0 8.0 0.00 0.00 0.00 55 1014.3
20260903011719 75 243 2.0 8.0 0.00 0.00 0.00 55 1014.3
20260903011550 75 228 2.0 8.0 0.00 0.00 0.00 55 1014.3
20260903011504 75 296 2.0 9.0 0.00 0.00 0.00 55 1014.3
20260903011454 75 235 2.0 9.0 0.00 0.00 0.00 55 1014.3
20260903011318 75 280 3.0 9.0 0.00 0.00 0.00 55 1014.3
20260903011147 75 253 3.0 9.0 0.00 0.00 0.00 55 1014.3
20260903011046 75 203 4.0 9.0 0.00 0.00 0.00 56 1014.3
20260903010946 75 233 4.0 9.0 0.00 0.00 0.00 55 1014.3
20260903010846 75 250 4.0 9.0 0.00 0.00 0.00 55 1014.4
20260903010747 75 208 4.0 9.0 0.00 0.00 0.00 55 1014.4
20260903010647 75 217 3.0 9.0 0.00 0.00 0.00 55 1014.4
20260903010546 75 239 3.0 9.0 0.00 0.00 0.00 55 1014.4
20260903010447 75 230 3.0 9.0 0.00 0.00 0.00 56 1014.3
20260903010352 75 229 3.0 9.0 0.00 0.00 0.00 55 1014.4
20260903010347 75 210 3.0 9.0 0.00 0.00 0.00 55 1014.4
20260903010246 75 246 3.0 9.0 0.00 0.00 0.00 55 1014.4
20260903010148 75 239 2.0 9.0 0.00 0.00 0.00 55 1014.4
20260903010042 75 225 2.0 9.0 0.00 0.00 0.00 55 1014.4
20260903005942 76 257 2.0 6.0 0.00 0.00 0.00 55 1014.4
20260903005848 76 230 2.0 6.0 0.00 0.00 0.00 55 1014.4
20260903005842 76 229 2.0 6.0 0.00 0.00 0.00 55 1014.4
20260903005743 76 250 2.0 7.0 0.00 0.00 0.00 55 1014.4
20260903005642 76 250 2.0 7.0 0.00 0.00 0.00 55 1014.4
20260903005540 76 228 2.0 7.0 0.00 0.00 0.00 55 1014.4
20260903005456 76 231 2.0 7.0 0.00 0.00 0.00 56 1014.4
20260903005345 76 225 2.0 7.0 0.00 0.00 0.00 55 1014.4
20260903005340 76 238 2.0 7.0 0.00 0.00 0.00 55 1014.4
20260903005240 76 207 3.0 7.0 0.00 0.00 0.00 55 1014.4
20260903005140 76 235 2.0 7.0 0.00 0.00 0.00 55 1014.4
20260903005103 76 241 2.0 7.0 0.00 0.00 0.00 55 1014.5
20260903005040 76 241 3.0 7.0 0.00 0.00 0.00 55 1014.4
20260903004957 76 231 2.0 7.0 0.00 0.00 0.00 55 1014.4
20260903004840 76 250 2.0 7.0 0.00 0.00 0.00 55 1014.5
20260903004741 76 228 2.0 7.0 0.00 0.00 0.00 55 1014.5
20260903004640 76 239 2.0 7.0 0.00 0.00 0.00 55 1014.4
20260903004541 76 224 2.0 7.0 0.00 0.00 0.00 55 1014.4
20260903004442 76 221 2.0 7.0 0.00 0.00 0.00 56 1014.4
20260903004346 76 246 2.0 5.0 0.00 0.00 0.00 56 1014.4
20260903004341 76 228 2.0 5.0 0.00 0.00 0.00 56 1014.4
20260903004238 76 262 1.0 5.0 0.00 0.00 0.00 56 1014.4
20260903004138 76 286 1.0 5.0 0.00 0.00 0.00 56 1014.4
20260903004038 76 238 1.0 5.0 0.00 0.00 0.00 56 1014.4
20260903003938 76 239 1.0 6.0 0.00 0.00 0.00 56 1014.4
20260903003845 76 236 1.0 6.0 0.00 0.00 0.00 56 1014.5
20260903003838 76 232 1.0 6.0 0.00 0.00 0.00 56 1014.5
20260903003739 76 233 1.0 6.0 0.00 0.00 0.00 56 1014.5
20260903003638 76 210 1.0 6.0 0.00 0.00 0.00 56 1014.4
20260903003605 76 204 2.0 8.0 0.00 0.00 0.00 56 1014.4
20260903003538 76 274 2.0 6.0 0.00 0.00 0.00 56 1014.5
20260903003456 76 249 2.0 8.0 0.00 0.00 0.00 56 1014.4
20260903003337 76 204 2.0 8.0 0.00 0.00 0.00 56 1014.4
20260903003238 76 253 2.0 8.0 0.00 0.00 0.00 55 1014.4
20260903003139 76 231 2.0 8.0 0.00 0.00 0.00 56 1014.5
20260903003039 76 295 2.0 8.0 0.00 0.00 0.00 56 1014.5
20260903002935 76 236 2.0 8.0 0.00 0.00 0.00 56 1014.4
20260903002836 76 150 3.0 9.0 0.00 0.00 0.00 56 1014.5
20260903002832 76 270 2.0 8.0 0.00 0.00 0.00 56 1014.5
20260903002732 76 232 3.0 8.0 0.00 0.00 0.00 56 1014.5
20260903002715 76 226 3.0 9.0 0.00 0.00 0.00 56 1014.5
20260903002539 76 239 3.0 9.0 0.00 0.00 0.00 57 1014.5
20260903002534 76 230 3.0 9.0 0.00 0.00 0.00 56 1014.5
20260903002457 76 239 3.0 9.0 0.00 0.00 0.00 57 1014.5
20260903002330 76 151 3.0 9.0 0.00 0.00 0.00 56 1014.5
20260903002230 76 150 3.0 9.0 0.00 0.00 0.00 56 1014.5
20260903002144 76 197 4.0 11.0 0.00 0.00 0.00 56 1014.5
20260903002138 76 198 4.0 11.0 0.00 0.00 0.00 56 1014.5
20260903001929 76 237 3.0 11.0 0.00 0.00 0.00 56 1014.6
20260903001845 76 140 4.0 11.0 0.00 0.00 0.00 56 1014.6
20260903001828 76 208 4.0 11.0 0.00 0.00 0.00 56 1014.6
20260903001728 76 239 4.0 11.0 0.00 0.00 0.00 55 1014.5
20260903001628 76 231 3.0 11.0 0.00 0.00 0.00 55 1014.6
20260903001610 76 255 3.0 11.0 0.00 0.00 0.00 55 1014.6
20260903001535 76 257 3.0 11.0 0.00 0.00 0.00 55 1014.6
20260903001456 76 250 3.0 11.0 0.00 0.00 0.00 56 1014.6
20260903001328 76 256 3.0 11.0 0.00 0.00 0.00 55 1014.6
20260903001228 76 274 3.0 11.0 0.00 0.00 0.00 55 1014.6
20260903001128 76 252 2.0 9.0 0.00 0.00 0.00 55 1014.6
20260903001028 77 242 2.0 9.0 0.00 0.00 0.00 55 1014.6
20260903000928 77 229 2.0 9.0 0.00 0.00 0.00 54 1014.6
20260903000845 77 218 2.0 9.0 0.00 0.00 0.00 54 1014.6
20260903000827 77 236 2.0 9.0 0.00 0.00 0.00 54 1014.6
20260903000728 77 233 2.0 8.0 0.00 0.00 0.00 55 1014.6
20260903000628 77 229 2.0 8.0 0.00 0.00 0.00 54 1014.6
20260903000612 77 344 2.0 9.0 0.00 0.00 0.00 54 1014.7
20260903000524 77 225 3.0 9.0 0.00 0.00 0.00 54 1014.7
20260903000455 77 223 2.0 9.0 0.00 0.00 0.00 55 1014.7
20260903000325 77 345 2.0 9.0 0.00 0.00 0.00 54 1014.7
20260903000226 77 269 2.0 9.0 0.00 0.00 0.00 55 1014.7
20260903000124 77 246 2.0 9.0 0.00 0.00 0.00 53 1014.7
20260903000022 78 102 2.0 9.0 0.00 0.00 0.00 53 1014.8
20260902235928 78 161 2.0 9.0 0.00 0.00 0.00 53 1014.7
20260902235822 78 236 2.0 9.0 0.00 0.00 0.00 53 1014.7
20260902235722 78 218 2.0 9.0 0.00 0.00 0.00 53 1014.7
20260902235623 78 233 1.0 9.0 0.00 0.00 0.00 53 1014.7
20260902235606 78 281 1.0 4.0 0.00 0.00 0.00 53 1014.7
20260902235523 78 235 1.0 5.0 0.00 0.00 0.00 52 1014.7
20260902235500 78 239 1.0 4.0 0.00 0.00 0.00 53 1014.7
20260902235455 78 281 1.0 4.0 0.00 0.00 0.00 53 1014.7
20260902235324 78 239 1.0 4.0 0.00 0.00 0.00 53 1014.7
20260902235216 78 298 1.0 4.0 0.00 0.00 0.00 53 1014.7
20260902235117 78 233 1.0 4.0 0.00 0.00 0.00 53 1014.7
20260902235017 78 217 0.0 3.0 0.00 0.00 0.00 54 1014.8
20260902234916 78 259 0.0 3.0 0.00 0.00 0.00 53 1014.8
20260902234847 78 135 0.0 3.0 0.00 0.00 0.00 53 1014.8
20260902234842 79 276 1.0 6.0 0.00 0.00 0.00 53 1014.9
20260902234816 78 135 0.0 3.0 0.00 0.00 0.00 53 1014.8
20260902234731 78 167 0.0 3.0 0.00 0.00 0.00 53 1014.8
20260902234617 78 166 0.0 3.0 0.00 0.00 0.00 53 1014.9
20260902234516 78 277 1.0 5.0 0.00 0.00 0.00 52 1014.9
20260902234456 79 277 1.0 6.0 0.00 0.00 0.00 53 1014.9
20260902234316 79 280 1.0 10.0 0.00 0.00 0.00 53 1014.9
20260902234216 78 269 2.0 10.0 0.00 0.00 0.00 53 1014.9
20260902234113 78 222 3.0 10.0 0.00 0.00 0.00 54 1014.9
20260902234012 78 225 3.0 10.0 0.00 0.00 0.00 54 1014.8
20260902233913 78 225 3.0 10.0 0.00 0.00 0.00 54 1014.7
20260902233847 78 225 3.0 10.0 0.00 0.00 0.00 53 1014.7
20260902233813 78 225 3.0 10.0 0.00 0.00 0.00 53 1014.9
20260902233712 78 224 3.0 10.0 0.00 0.00 0.00 52 1014.9
20260902233614 78 222 3.0 10.0 0.00 0.00 0.00 52 1014.9
20260902233513 78 239 2.0 10.0 0.00 0.00 0.00 52 1014.9
20260902233412 78 208 2.0 10.0 0.00 0.00 0.00 52 1014.9
20260902233345 79 204 2.0 10.0 0.00 0.00 0.00 52 1014.9
20260902233312 79 219 1.0 9.0 0.00 0.00 0.00 52 1014.8
20260902233212 79 212 1.0 8.0 0.00 0.00 0.00 53 1014.8
20260902233125 78 260 1.0 4.0 0.00 0.00 0.00 53 1014.7
20260902233122 79 211 1.0 4.0 0.00 0.00 0.00 53 1014.8
20260902232913 78 300 1.0 6.0 0.00 0.00 0.00 53 1014.9
20260902232845 78 300 1.0 6.0 0.00 0.00 0.00 54 1014.9
20260902232812 78 242 1.0 6.0 0.00 0.00 0.00 54 1014.8
20260902232712 78 235 1.0 7.0 0.00 0.00 0.00 54 1014.9
20260902232615 78 215 1.0 7.0 0.00 0.00 0.00 53 1014.8
20260902232607 78 326 2.0 7.0 0.00 0.00 0.00 54 1014.9
20260902232600 78 326 2.0 7.0 0.00 0.00 0.00 53 1014.8
20260902232419 78 326 2.0 7.0 0.00 0.00 0.00 54 1014.8
20260902232313 78 326 2.0 7.0 0.00 0.00 0.00 54 1014.9
20260902232243 78 225 2.0 7.0 0.00 0.00 0.00 54 1014.9
20260902232124 78 253 2.0 7.0 0.00 0.00 0.00 53 1014.9
20260902232120 78 225 2.0 7.0 0.00 0.00 0.00 53 1014.9
20260902231910 78 231 1.0 7.0 0.00 0.00 0.00 54 1014.9
20260902231843 78 250 1.0 7.0 0.00 0.00 0.00 54 1014.9
20260902231809 78 248 1.0 7.0 0.00 0.00 0.00 53 1014.9
20260902231710 78 284 1.0 5.0 0.00 0.00 0.00 54 1014.9
20260902231611 78 256 1.0 5.0 0.00 0.00 0.00 53 1014.9
20260902231531 78 263 1.0 5.0 0.00 0.00 0.00 54 1014.9
20260902231411 78 214 1.0 4.0 0.00 0.00 0.00 54 1015.0
20260902231343 78 326 1.0 4.0 0.00 0.00 0.00 54 1015.0
20260902231310 78 328 1.0 4.0 0.00 0.00 0.00 54 1014.9
20260902231208 78 48 1.0 3.0 0.00 0.00 0.00 54 1014.9
20260902231108 78 358 1.0 3.0 0.00 0.00 0.00 54 1014.9
20260902231002 78 1 1.0 3.0 0.00 0.00 0.00 54 1014.9
20260902230842 78 1 1.0 4.0 0.00 0.00 0.00 53 1014.9
20260902230802 78 4 1.0 4.0 0.00 0.00 0.00 53 1015.0
20260902230702 78 231 1.0 4.0 0.00 0.00 0.00 54 1015.0
20260902230604 78 230 1.0 4.0 0.00 0.00 0.00 53 1015.0
20260902230500 78 318 1.0 4.0 0.00 0.00 0.00 53 1015.0
20260902230405 79 221 2.0 4.0 0.00 0.00 0.00 53 1015.0
20260902230354 79 221 2.0 6.0 0.00 0.00 0.00 53 1015.0
20260902230300 79 250 2.0 8.0 0.00 0.00 0.00 53 1015.1
20260902230247 79 241 2.0 8.0 0.00 0.00 0.00 53 1015.1
20260902230212 79 250 2.0 8.0 0.00 0.00 0.00 53 1015.1
20260902230001 79 263 2.0 8.0 0.00 0.00 0.00 53 1015.1
20260902225841 79 354 2.0 8.0 0.00 0.00 0.00 53 1015.1
20260902225756 79 354 2.0 8.0 0.00 0.00 0.00 52 1015.1
20260902225656 79 240 2.0 8.0 0.00 0.00 0.00 53 1015.1
20260902225609 79 233 2.0 8.0 0.00 0.00 0.00 52 1015.1
20260902225601 79 229 2.0 8.0 0.00 0.00 0.00 52 1015.1
20260902225458 79 222 3.0 8.0 0.00 0.00 0.00 52 1015.1
20260902225450 79 193 2.0 8.0 0.00 0.00 0.00 52 1015.1
20260902225254 79 240 2.0 7.0 0.00 0.00 0.00 53 1015.2
20260902225154 79 243 2.0 6.0 0.00 0.00 0.00 53 1015.1
20260902225054 79 243 2.0 6.0 0.00 0.00 0.00 54 1015.1
20260902224954 79 308 2.0 8.0 0.00 0.00 0.00 53 1015.1
20260902224840 79 238 2.0 9.0 0.00 0.00 0.00 53 1015.1
20260902224754 79 238 2.0 9.0 0.00 0.00 0.00 54 1015.2
20260902224655 79 259 2.0 9.0 0.00 0.00 0.00 53 1015.2
20260902224550 79 235 2.0 9.0 0.00 0.00 0.00 53 1015.2
20260902224450 78 232 2.0 9.0 0.00 0.00 0.00 54 1015.2
20260902224357 78 250 2.0 9.0 0.00 0.00 0.00 54 1015.2
20260902224250 78 250 3.0 9.0 0.00 0.00 0.00 54 1015.2
20260902224151 78 250 3.0 9.0 0.00 0.00 0.00 54 1015.2
20260902224049 78 259 3.0 9.0 0.00 0.00 0.00 53 1015.3
20260902223948 78 235 3.0 9.0 0.00 0.00 0.00 53 1015.2
20260902223848 78 160 2.0 8.0 0.00 0.00 0.00 54 1015.2
20260902223837 78 158 2.0 8.0 0.00 0.00 0.00 54 1015.2
20260902223749 78 187 2.0 8.0 0.00 0.00 0.00 54 1015.2
20260902223648 78 248 3.0 8.0 0.00 0.00 0.00 54 1015.3
20260902223548 78 236 3.0 8.0 0.00 0.00 0.00 55 1015.2
20260902223448 78 242 3.0 8.0 0.00 0.00 0.00 54 1015.3
20260902223347 78 241 3.0 8.0 0.00 0.00 0.00 54 1015.3
20260902223337 78 239 3.0 8.0 0.00 0.00 0.00 54 1015.3
20260902223243 78 134 3.0 8.0 0.00 0.00 0.00 53 1015.3
20260902223143 78 236 3.0 8.0 0.00 0.00 0.00 53 1015.3
20260902223055 78 283 3.0 8.0 0.00 0.00 0.00 53 1015.3
20260902223043 78 300 3.0 8.0 0.00 0.00 0.00 53 1015.3
20260902222956 78 256 3.0 8.0 0.00 0.00 0.00 53 1015.3
20260902222948 78 238 3.0 8.0 0.00 0.00 0.00 53 1015.3
20260902222742 78 235 3.0 8.0 0.00 0.00 0.00 53 1015.3
20260902222642 78 233 3.0 8.0 0.00 0.00 0.00 53 1015.2
20260902222542 78 284 3.0 8.0 0.00 0.00 0.00 53 1015.2
20260902222442 78 242 3.0 8.0 0.00 0.00 0.00 52 1015.3
20260902222347 78 212 3.0 8.0 0.00 0.00 0.00 53 1015.3
20260902222337 78 226 3.0 8.0 0.00 0.00 0.00 53 1015.3
20260902222242 78 253 3.0 11.0 0.00 0.00 0.00 52 1015.3
20260902222143 78 224 3.0 11.0 0.00 0.00 0.00 53 1015.3
20260902222042 78 249 3.0 11.0 0.00 0.00 0.00 53 1015.3
20260902221942 78 241 3.0 11.0 0.00 0.00 0.00 54 1015.3
20260902221837 78 208 3.0 11.0 0.00 0.00 0.00 54 1015.3
20260902221742 77 231 3.0 11.0 0.00 0.00 0.00 54 1015.3
20260902221642 77 269 4.0 11.0 0.00 0.00 0.00 54 1015.3
20260902221607 77 222 4.0 12.0 0.00 0.00 0.00 54 1015.3
20260902221540 77 212 4.0 12.0 0.00 0.00 0.00 54 1015.3
20260902221444 77 224 4.0 12.0 0.00 0.00 0.00 54 1015.4
20260902221354 77 222 4.0 12.0 0.00 0.00 0.00 54 1015.3
20260902221240 77 238 4.0 12.0 0.00 0.00 0.00 54 1015.4
20260902221141 77 246 4.0 12.0 0.00 0.00 0.00 53 1015.4
20260902221059 77 208 4.0 12.0 0.00 0.00 0.00 53 1015.4
20260902221039 77 233 5.0 12.0 0.00 0.00 0.00 54 1015.4
20260902220956 77 226 5.0 12.0 0.00 0.00 0.00 54 1015.4
20260902220946 77 208 4.0 12.0 0.00 0.00 0.00 53 1015.4
20260902220740 78 233 4.0 12.0 0.00 0.00 0.00 52 1015.4
20260902220640 78 240 3.0 12.0 0.00 0.00 0.00 52 1015.4
20260902220540 78 201 3.0 11.0 0.00 0.00 0.00 52 1015.4
20260902220508 78 240 2.0 10.0 0.00 0.00 0.00 52 1015.4
20260902220342 78 228 3.0 10.0 0.00 0.00 0.00 53 1015.4
20260902220248 78 260 2.0 10.0 0.00 0.00 0.00 52 1015.4
20260902220141 79 260 2.0 10.0 0.00 0.00 0.00 52 1015.4
20260902220040 79 238 2.0 10.0 0.00 0.00 0.00 53 1015.4
20260902215954 78 241 3.0 11.0 0.00 0.00 0.00 53 1015.4
20260902215950 79 238 3.0 11.0 0.00 0.00 0.00 53 1015.4
20260902215831 78 241 3.0 11.0 0.00 0.00 0.00 53 1015.4
20260902215809 78 217 3.0 11.0 0.00 0.00 0.00 53 1015.5
20260902215638 78 146 3.0 11.0 0.00 0.00 0.00 53 1015.5
20260902215538 78 274 4.0 11.0 0.00 0.00 0.00 53 1015.6
20260902215439 78 281 3.0 11.0 0.00 0.00 0.00 53 1015.6
20260902215342 78 236 3.0 11.0 0.00 0.00 0.00 52 1015.5
20260902215331 78 256 3.0 11.0 0.00 0.00 0.00 52 1015.5
20260902215238 78 232 3.0 11.0 0.00 0.00 0.00 53 1015.6
20260902215139 78 159 3.0 11.0 0.00 0.00 0.00 53 1015.6
20260902215038 78 245 2.0 10.0 0.00 0.00 0.00 53 1015.6
20260902214938 78 158 2.0 8.0 0.00 0.00 0.00 52 1015.6
20260902214842 78 216 2.0 8.0 0.00 0.00 0.00 52 1015.7
20260902214831 78 203 2.0 8.0 0.00 0.00 0.00 52 1015.7
20260902214739 78 274 3.0 9.0 0.00 0.00 0.00 52 1015.7
20260902214639 79 273 3.0 10.0 0.00 0.00 0.00 51 1015.7
20260902214539 78 228 4.0 10.0 0.00 0.00 0.00 53 1015.7
20260902214446 78 228 4.0 10.0 0.00 0.00 0.00 52 1015.7
20260902214336 78 284 5.0 10.0 0.00 0.00 0.00 53 1015.7
20260902214234 78 273 5.0 10.0 0.00 0.00 0.00 53 1015.8
20260902214134 78 184 5.0 10.0 0.00 0.00 0.00 53 1015.7
20260902214034 78 222 4.0 10.0 0.00 0.00 0.00 53 1015.7
20260902213934 78 256 4.0 10.0 0.00 0.00 0.00 52 1015.8
20260902213834 78 273 4.0 10.0 0.00 0.00 0.00 52 1015.7
20260902213732 78 219 3.0 10.0 0.00 0.00 0.00 52 1015.8
20260902213632 78 233 2.0 10.0 0.00 0.00 0.00 52 1015.7
20260902213554 77 231 3.0 8.0 0.00 0.00 0.00 55 1015.9
20260902213545 78 335 1.0 6.0 0.00 0.00 0.00 53 1015.7
20260902213540 78 225 2.0 10.0 0.00 0.00 0.00 52 1015.8
20260902213528 78 235 1.0 8.0 0.00 0.00 0.00 53 1015.8
20260902213413 78 335 1.0 6.0 0.00 0.00 0.00 53 1015.7
20260902213238 78 77 1.0 6.0 0.00 0.00 0.00 53 1015.9
20260902213233 78 335 1.0 7.0 0.00 0.00 0.00 53 1015.7
20260902213157 78 214 0.0 2.0 0.00 0.00 0.00 53 1015.9
20260902213153 78 321 1.0 7.0 0.00 0.00 0.00 54 1015.7
20260902213037 78 218 3.0 7.0 0.00 0.00 0.00 54 1015.8
20260902213033 78 321 2.0 7.0 0.00 0.00 0.00 54 1015.7
20260902213024 78 232 2.0 6.0 0.00 0.00 0.00 53 1015.8
20260902213020 78 314 2.0 6.0 0.00 0.00 0.00 53 1015.9
20260902213015 78 77 1.0 6.0 0.00 0.00 0.00 53 1015.9
20260902213005 78 321 2.0 7.0 0.00 0.00 0.00 54 1015.7
20260902212949 78 321 2.0 7.0 0.00 0.00 0.00 54 1015.8
20260902212820 77 264 3.0 9.0 0.00 0.00 0.00 54 1016.0
20260902212816 78 235 2.0 7.0 0.00 0.00 0.00 54 1015.8
20260902212703 78 204 2.0 7.0 0.00 0.00 0.00 53 1015.8
20260902212655 78 250 2.0 7.0 0.00 0.00 0.00 54 1015.8
20260902212643 78 226 2.0 7.0 0.00 0.00 0.00 53 1015.8
20260902212626 78 218 3.0 7.0 0.00 0.00 0.00 54 1015.8
20260902212617 78 266 2.0 7.0 0.00 0.00 0.00 53 1015.8
20260902212610 78 232 2.0 6.0 0.00 0.00 0.00 53 1015.8
20260902212547 78 314 2.0 6.0 0.00 0.00 0.00 53 1015.9
20260902212533 78 18 2.0 6.0 0.00 0.00 0.00 53 1015.8
20260902212519 78 136 2.0 6.0 0.00 0.00 0.00 52 1015.8
20260902212509 78 193 2.0 6.0 0.00 0.00 0.00 52 1015.9
20260902212500 78 256 2.0 6.0 0.00 0.00 0.00 53 1015.9
20260902212450 78 235 1.0 6.0 0.00 0.00 0.00 53 1015.9
20260902212439 78 246 1.0 6.0 0.00 0.00 0.00 53 1015.9
20260902212427 78 77 1.0 6.0 0.00 0.00 0.00 53 1015.9
20260902212405 78 293 1.0 6.0 0.00 0.00 0.00 53 1015.9
20260902212356 78 225 1.0 6.0 0.00 0.00 0.00 53 1015.9
20260902212348 78 173 1.0 5.0 0.00 0.00 0.00 53 1015.9
20260902212340 78 268 0.0 5.0 0.00 0.00 0.00 53 1015.9
20260902212331 78 224 0.0 2.0 0.00 0.00 0.00 53 1015.9
20260902211410 78 193 0.0 2.0 0.00 0.00 0.00 53 1015.9
20260902211402 78 193 1.0 7.0 0.00 0.00 0.00 53 1015.9
20260902211354 78 193 1.0 9.0 0.00 0.00 0.00 53 1015.9
20260902211341 78 193 1.0 9.0 0.00 0.00 0.00 53 1015.9
20260902211322 77 217 2.0 9.0 0.00 0.00 0.00 53 1015.9
20260902211316 77 217 2.0 9.0 0.00 0.00 0.00 54 1015.9
20260902211308 77 264 2.0 9.0 0.00 0.00 0.00 54 1015.9
20260902211259 77 264 2.0 9.0 0.00 0.00 0.00 54 1015.9
20260902211251 77 264 2.0 9.0 0.00 0.00 0.00 54 1015.9
20260902211242 77 264 3.0 9.0 0.00 0.00 0.00 54 1016.0
20260902211127 77 295 3.0 9.0 0.00 0.00 0.00 55 1016.0
20260902211118 77 308 3.0 9.0 0.00 0.00 0.00 55 1015.9
20260902211110 77 210 3.0 8.0 0.00 0.00 0.00 55 1015.9
20260902211058 77 145 3.0 8.0 0.00 0.00 0.00 56 1015.9
20260902211046 77 231 3.0 8.0 0.00 0.00 0.00 55 1015.9
20260902205228 76 243 3.0 8.0 0.00 0.00 0.00 54 1016.0
20260902205127 77 246 3.0 8.0 0.00 0.00 0.00 53 1015.9
20260902205029 77 212 3.0 8.0 0.00 0.00 0.00 52 1016.0
20260902204928 77 221 3.0 8.0 0.00 0.00 0.00 53 1016.0
20260902204831 77 250 3.0 8.0 0.00 0.00 0.00 51 1016.0
20260902204821 77 255 3.0 8.0 0.00 0.00 0.00 51 1016.0
20260902204728 78 211 2.0 7.0 0.00 0.00 0.00 51 1016.0
20260902204629 78 255 2.0 7.0 0.00 0.00 0.00 51 1016.0
20260902204528 78 223 2.0 6.0 0.00 0.00 0.00 52 1016.0
20260902204428 78 214 2.0 6.0 0.00 0.00 0.00 52 1016.0
20260902204332 78 236 2.0 6.0 0.00 0.00 0.00 52 1016.0
20260902204322 78 248 2.0 6.0 0.00 0.00 0.00 52 1016.0
20260902204228 78 205 2.0 6.0 0.00 0.00 0.00 52 1016.0
20260902204128 78 225 2.0 6.0 0.00 0.00 0.00 52 1016.0
20260902204112 78 248 2.0 6.0 0.00 0.00 0.00 52 1016.0
20260902203929 78 224 2.0 5.0 0.00 0.00 0.00 53 1016.0
20260902203821 78 235 2.0 6.0 0.00 0.00 0.00 53 1016.0
20260902203728 78 240 2.0 6.0 0.00 0.00 0.00 53 1016.1
20260902203629 78 100 3.0 6.0 0.00 0.00 0.00 52 1016.1
20260902203529 78 101 3.0 6.0 0.00 0.00 0.00 52 1016.1
20260902203424 78 141 3.0 6.0 0.00 0.00 0.00 52 1016.1
20260902203326 78 110 3.0 6.0 0.00 0.00 0.00 52 1016.1
20260902203225 78 113 3.0 6.0 0.00 0.00 0.00 52 1016.1
20260902203125 78 200 3.0 6.0 0.00 0.00 0.00 52 1016.2
20260902203024 78 225 3.0 6.0 0.00 0.00 0.00 52 1016.2
20260902202945 78 108 2.0 6.0 0.00 0.00 0.00 52 1016.2
20260902202940 78 214 2.0 6.0 0.00 0.00 0.00 52 1016.2
20260902202826 78 108 2.0 6.0 0.00 0.00 0.00 52 1016.2
20260902202724 78 210 2.0 6.0 0.00 0.00 0.00 51 1016.2
20260902202625 78 141 2.0 6.0 0.00 0.00 0.00 51 1016.3
20260902202529 79 219 1.0 6.0 0.00 0.00 0.00 51 1016.3
20260902202423 79 70 1.0 6.0 0.00 0.00 0.00 50 1016.3
20260902202325 79 103 1.0 3.0 0.00 0.00 0.00 51 1016.3
20260902202237 79 146 1.0 2.0 0.00 0.00 0.00 51 1016.3
20260902202233 79 201 1.0 2.0 0.00 0.00 0.00 51 1016.3
20260902202024 79 177 1.0 2.0 0.00 0.00 0.00 52 1016.3
20260902201925 79 309 1.0 2.0 0.00 0.00 0.00 52 1016.3
20260902201830 79 44 1.0 2.0 0.00 0.00 0.00 52 1016.3
20260902201725 79 335 1.0 2.0 0.00 0.00 0.00 53 1016.4
20260902201624 79 294 1.0 2.0 0.00 0.00 0.00 52 1016.3
20260902201526 79 294 1.0 2.0 0.00 0.00 0.00 52 1016.3
20260902201510 77 230 3.0 7.0 0.00 0.00 0.00 54 1016.5
20260902201506 79 294 1.0 4.0 0.00 0.00 0.00 52 1016.3
20260902201447 79 294 1.0 5.0 0.00 0.00 0.00 53 1016.4
20260902201442 79 291 1.0 5.0 0.00 0.00 0.00 52 1016.4
20260902201432 79 226 1.0 6.0 0.00 0.00 0.00 53 1016.4
20260902201424 79 153 2.0 6.0 0.00 0.00 0.00 53 1016.4
20260902201415 78 228 2.0 6.0 0.00 0.00 0.00 53 1016.5
20260902201353 78 217 2.0 6.0 0.00 0.00 0.00 53 1016.4
20260902200722 78 113 2.0 7.0 0.00 0.00 0.00 53 1016.5
20260902200656 77 141 3.0 7.0 0.00 0.00 0.00 54 1016.5
20260902200525 77 131 3.0 7.0 0.00 0.00 0.00 53 1016.5
20260902200439 77 242 3.0 7.0 0.00 0.00 0.00 54 1016.5
20260902200431 77 229 3.0 7.0 0.00 0.00 0.00 54 1016.5
20260902200221 77 212 3.0 7.0 0.00 0.00 0.00 55 1016.5
20260902200123 77 212 3.0 7.0 0.00 0.00 0.00 55 1016.5
20260902200054 76 193 2.0 7.0 0.00 0.00 0.00 55 1016.5
20260902195922 76 250 2.0 7.0 0.00 0.00 0.00 54 1016.5
20260902195829 76 130 2.0 7.0 0.00 0.00 0.00 54 1016.6
20260902195719 76 211 2.0 7.0 0.00 0.00 0.00 54 1016.6
20260902195621 76 219 2.0 9.0 0.00 0.00 0.00 54 1016.6
20260902195526 76 208 2.0 9.0 0.00 0.00 0.00 56 1016.6
20260902195420 76 333 2.0 9.0 0.00 0.00 0.00 56 1016.5
20260902195325 76 310 3.0 9.0 0.00 0.00 0.00 55 1016.6
20260902195220 76 356 3.0 9.0 0.00 0.00 0.00 56 1016.5
20260902195121 76 284 3.0 9.0 0.00 0.00 0.00 56 1016.6
20260902195021 76 300 3.0 9.0 0.00 0.00 0.00 55 1016.7
20260902194952 77 235 2.0 9.0 0.00 0.00 0.00 55 1016.7
20260902194841 77 249 2.0 9.0 0.00 0.00 0.00 54 1016.7
20260902194830 77 257 2.0 9.0 0.00 0.00 0.00 54 1016.7
20260902194620 77 233 2.0 7.0 0.00 0.00 0.00 54 1016.7
20260902194525 77 198 2.0 6.0 0.00 0.00 0.00 53 1016.7
20260902194417 78 230 2.0 6.0 0.00 0.00 0.00 53 1016.7
20260902194322 78 215 2.0 6.0 0.00 0.00 0.00 53 1016.7
20260902194316 78 215 2.0 6.0 0.00 0.00 0.00 53 1016.8
20260902194215 77 146 3.0 10.0 0.00 0.00 0.00 55 1016.7
20260902194117 77 235 3.0 10.0 0.00 0.00 0.00 54 1016.7
20260902194016 77 231 3.0 10.0 0.00 0.00 0.00 54 1016.8
20260902193916 77 205 3.0 10.0 0.00 0.00 0.00 54 1016.8
20260902193822 77 243 3.0 10.0 0.00 0.00 0.00 54 1016.8
20260902193817 77 229 3.0 10.0 0.00 0.00 0.00 54 1016.8
20260902193716 77 146 3.0 10.0 0.00 0.00 0.00 54 1016.7
20260902193616 77 216 2.0 10.0 0.00 0.00 0.00 54 1016.8
20260902193520 77 214 2.0 10.0 0.00 0.00 0.00 54 1016.7
20260902193415 77 183 2.0 10.0 0.00 0.00 0.00 53 1016.8
20260902193323 77 183 2.0 10.0 0.00 0.00 0.00 53 1016.8
20260902193317 77 218 2.0 10.0 0.00 0.00 0.00 53 1016.8
20260902193217 77 217 1.0 8.0 0.00 0.00 0.00 54 1016.8
20260902193117 77 234 2.0 8.0 0.00 0.00 0.00 55 1016.8
20260902193016 77 232 1.0 8.0 0.00 0.00 0.00 55 1016.8
20260902192914 77 273 1.0 8.0 0.00 0.00 0.00 55 1016.8
20260902192821 77 256 1.0 8.0 0.00 0.00 0.00 55 1016.8
20260902192815 77 256 1.0 8.0 0.00 0.00 0.00 55 1016.9
20260902192715 77 256 1.0 8.0 0.00 0.00 0.00 55 1017.0
20260902192615 77 256 1.0 8.0 0.00 0.00 0.00 54 1017.0
20260902192546 77 274 2.0 8.0 0.00 0.00 0.00 53 1016.9
20260902192519 77 239 2.0 8.0 0.00 0.00 0.00 54 1017.0
20260902192431 77 225 2.0 8.0 0.00 0.00 0.00 55 1016.9
20260902192315 77 281 2.0 8.0 0.00 0.00 0.00 53 1017.0
20260902192214 77 242 2.0 6.0 0.00 0.00 0.00 54 1017.0
20260902192115 77 278 2.0 5.0 0.00 0.00 0.00 55 1017.0
20260902192014 77 297 2.0 8.0 0.00 0.00 0.00 55 1017.0
20260902191914 77 296 2.0 8.0 0.00 0.00 0.00 55 1017.0
20260902191814 76 296 2.0 8.0 0.00 0.00 0.00 55 1017.0
20260902191714 76 191 2.0 8.0 0.00 0.00 0.00 56 1017.0
20260902191617 76 243 2.0 8.0 0.00 0.00 0.00 56 1017.0
20260902191541 75 146 2.0 8.0 0.00 0.00 0.00 56 1017.1
20260902191518 76 266 2.0 8.0 0.00 0.00 0.00 56 1017.1
20260902191414 75 138 2.0 8.0 0.00 0.00 0.00 56 1017.1
20260902191318 75 146 2.0 8.0 0.00 0.00 0.00 56 1017.1
20260902191310 75 138 2.0 8.0 0.00 0.00 0.00 56 1017.1
20260902191214 75 206 3.0 10.0 0.00 0.00 0.00 56 1017.1
20260902191111 75 179 3.0 10.0 0.00 0.00 0.00 56 1017.2
20260902191010 75 165 2.0 10.0 0.00 0.00 0.00 56 1017.2
20260902190910 75 223 2.0 10.0 0.00 0.00 0.00 57 1017.2
20260902190848 76 231 2.0 10.0 0.00 0.00 0.00 55 1017.2
20260902190810 75 246 2.0 10.0 0.00 0.00 0.00 57 1017.2
20260902190743 75 231 2.0 10.0 0.00 0.00 0.00 56 1017.2
20260902190738 75 246 2.0 10.0 0.00 0.00 0.00 57 1017.2
20260902190625 75 218 2.0 10.0 0.00 0.00 0.00 57 1017.2
20260902190410 75 238 2.0 10.0 0.00 0.00 0.00 57 1017.2
20260902190311 76 218 2.0 10.0 0.00 0.00 0.00 55 1017.2
20260902190301 76 221 2.0 7.0 0.00 0.00 0.00 56 1017.2
20260902190210 76 250 2.0 8.0 0.00 0.00 0.00 55 1017.1
20260902190111 76 229 2.0 7.0 0.00 0.00 0.00 56 1017.2
20260902190041 76 221 2.0 7.0 0.00 0.00 0.00 56 1017.2
20260902190010 76 231 2.0 7.0 0.00 0.00 0.00 57 1017.1
20260902185927 76 117 2.0 7.0 0.00 0.00 0.00 56 1017.2
20260902185810 76 221 2.0 7.0 0.00 0.00 0.00 55 1017.2
20260902185711 76 233 2.0 7.0 0.00 0.00 0.00 56 1017.2
20260902185611 76 235 2.0 7.0 0.00 0.00 0.00 55 1017.2
20260902185511 76 218 2.0 7.0 0.00 0.00 0.00 55 1017.1
20260902185404 76 141 2.0 7.0 0.00 0.00 0.00 56 1017.1
20260902185314 76 143 2.0 7.0 0.00 0.00 0.00 56 1017.1
20260902185307 76 145 2.0 7.0 0.00 0.00 0.00 56 1017.1
20260902185205 76 132 1.0 7.0 0.00 0.00 0.00 55 1017.2
20260902185105 76 137 1.0 7.0 0.00 0.00 0.00 55 1017.2
20260902185004 76 99 1.0 5.0 0.00 0.00 0.00 56 1017.2
20260902184904 76 117 1.0 4.0 0.00 0.00 0.00 57 1017.2
20260902184846 76 11 1.0 4.0 0.00 0.00 0.00 57 1017.1
20260902184804 76 11 1.0 5.0 0.00 0.00 0.00 57 1017.1
20260902184704 75 12 1.0 5.0 0.00 0.00 0.00 58 1017.2
20260902184605 75 117 1.0 5.0 0.00 0.00 0.00 58 1017.2
20260902184505 75 59 2.0 5.0 0.00 0.00 0.00 57 1017.2
20260902184405 75 187 2.0 6.0 0.00 0.00 0.00 57 1017.2
20260902184311 75 236 2.0 7.0 0.00 0.00 0.00 58 1017.2
20260902184308 75 236 2.0 7.0 0.00 0.00 0.00 58 1017.2
20260902184200 74 295 2.0 7.0 0.00 0.00 0.00 58 1017.2
20260902184102 74 255 3.0 8.0 0.00 0.00 0.00 59 1017.2
20260902184031 73 197 3.0 8.0 0.00 0.00 0.00 59 1017.3
20260902184000 74 255 3.0 8.0 0.00 0.00 0.00 60 1017.2
20260902183922 74 231 4.0 8.0 0.00 0.00 0.00 60 1017.2
20260902183912 73 239 4.0 8.0 0.00 0.00 0.00 60 1017.2
20260902183800 73 210 4.0 8.0 0.00 0.00 0.00 60 1017.2
20260902183743 73 156 4.0 8.0 0.00 0.00 0.00 60 1017.3
20260902183739 73 190 4.0 8.0 0.00 0.00 0.00 60 1017.3
20260902183628 73 156 4.0 8.0 0.00 0.00 0.00 60 1017.3
20260902183500 73 198 3.0 8.0 0.00 0.00 0.00 59 1017.3
20260902183422 73 225 3.0 8.0 0.00 0.00 0.00 59 1017.3
20260902183301 73 219 3.0 8.0 0.00 0.00 0.00 59 1017.3
20260902183201 73 212 3.0 8.0 0.00 0.00 0.00 59 1017.3
20260902183101 73 186 3.0 7.0 0.00 0.00 0.00 59 1017.3
20260902183030 73 186 3.0 6.0 0.00 0.00 0.00 60 1017.2
20260902183000 73 139 3.0 7.0 0.00 0.00 0.00 59 1017.3
20260902182922 73 132 3.0 7.0 0.00 0.00 0.00 60 1017.3
20260902182800 73 210 3.0 6.0 0.00 0.00 0.00 60 1017.2
20260902182702 73 200 3.0 6.0 0.00 0.00 0.00 60 1017.3
20260902182601 73 143 3.0 6.0 0.00 0.00 0.00 60 1017.3
20260902182522 73 197 3.0 6.0 0.00 0.00 0.00 59 1017.3
20260902182509 73 225 3.0 6.0 0.00 0.00 0.00 60 1017.3
20260902182312 73 208 3.0 7.0 0.00 0.00 0.00 60 1017.3
20260902182258 73 226 3.0 7.0 0.00 0.00 0.00 60 1017.3
20260902182158 73 185 3.0 7.0 0.00 0.00 0.00 59 1017.3
20260902182059 73 162 3.0 7.0 0.00 0.00 0.00 60 1017.2
20260902181958 73 124 3.0 7.0 0.00 0.00 0.00 60 1017.3
20260902181858 73 191 3.0 7.0 0.00 0.00 0.00 60 1017.3
20260902181811 73 190 3.0 7.0 0.00 0.00 0.00 60 1017.3
20260902181758 73 197 3.0 7.0 0.00 0.00 0.00 59 1017.3
20260902181658 73 148 2.0 7.0 0.00 0.00 0.00 60 1017.2
20260902181558 73 131 3.0 7.0 0.00 0.00 0.00 60 1017.2
20260902181536 73 207 3.0 7.0 0.00 0.00 0.00 60 1017.2
20260902181458 73 101 3.0 7.0 0.00 0.00 0.00 60 1017.2
20260902181421 73 136 3.0 7.0 0.00 0.00 0.00 60 1017.2
20260902181258 73 195 2.0 7.0 0.00 0.00 0.00 60 1017.2
20260902181158 73 201 2.0 7.0 0.00 0.00 0.00 60 1017.2
20260902181100 73 250 2.0 7.0 0.00 0.00 0.00 60 1017.2
20260902180958 73 229 2.0 7.0 0.00 0.00 0.00 60 1017.2
20260902180858 73 207 2.0 7.0 0.00 0.00 0.00 60 1017.2
20260902180811 73 135 2.0 7.0 0.00 0.00 0.00 60 1017.1
20260902180758 73 139 1.0 7.0 0.00 0.00 0.00 60 1017.1
20260902180658 73 160 1.0 7.0 0.00 0.00 0.00 60 1017.2
20260902180559 73 200 1.0 5.0 0.00 0.00 0.00 60 1017.2
20260902180540 73 191 1.0 4.0 0.00 0.00 0.00 61 1017.2
20260902180458 73 138 1.0 5.0 0.00 0.00 0.00 61 1017.2
20260902180424 73 166 1.0 4.0 0.00 0.00 0.00 62 1017.1
20260902180258 73 192 1.0 4.0 0.00 0.00 0.00 61 1017.2
20260902180158 73 191 1.0 4.0 0.00 0.00 0.00 61 1017.2
20260902180059 73 183 1.0 4.0 0.00 0.00 0.00 61 1017.2
20260902175958 72 183 1.0 4.0 0.00 0.00 0.00 62 1017.2
20260902175856 72 208 1.0 4.0 0.00 0.00 0.00 63 1017.2
20260902175812 72 163 1.0 4.0 0.00 0.00 0.00 62 1017.1
20260902175756 72 163 2.0 5.0 0.00 0.00 0.00 62 1017.1
20260902175657 72 163 2.0 7.0 0.00 0.00 0.00 62 1017.1
20260902175556 72 143 2.0 7.0 0.00 0.00 0.00 62 1017.1
20260902175457 72 134 2.0 7.0 0.00 0.00 0.00 62 1017.2
20260902175356 72 243 2.0 7.0 0.00 0.00 0.00 62 1017.2
20260902175311 72 232 2.0 7.0 0.00 0.00 0.00 62 1017.2
20260902175254 72 233 2.0 7.0 0.00 0.00 0.00 62 1017.2
20260902175148 72 260 2.0 7.0 0.00 0.00 0.00 62 1017.1
20260902175049 72 217 2.0 7.0 0.00 0.00 0.00 62 1017.2
20260902174949 72 219 2.0 7.0 0.00 0.00 0.00 61 1017.1
20260902174848 72 239 2.0 7.0 0.00 0.00 0.00 62 1017.2
20260902174811 72 238 2.0 7.0 0.00 0.00 0.00 62 1017.2
20260902174748 72 235 1.0 6.0 0.00 0.00 0.00 62 1017.2
20260902174649 72 228 1.0 6.0 0.00 0.00 0.00 62 1017.2
20260902174549 72 200 1.0 6.0 0.00 0.00 0.00 62 1017.2
20260902174531 71 224 1.0 6.0 0.00 0.00 0.00 62 1017.3
20260902174448 71 223 1.0 6.0 0.00 0.00 0.00 62 1017.2
20260902174432 71 210 1.0 6.0 0.00 0.00 0.00 62 1017.3
20260902174248 71 216 1.0 6.0 0.00 0.00 0.00 63 1017.3
20260902174148 71 222 1.0 6.0 0.00 0.00 0.00 63 1017.2
20260902174048 71 221 1.0 6.0 0.00 0.00 0.00 63 1017.2
20260902174038 71 221 2.0 6.0 0.00 0.00 0.00 63 1017.3
20260902174001 71 221 2.0 6.0 0.00 0.00 0.00 63 1017.3
20260902173922 71 221 2.0 6.0 0.00 0.00 0.00 63 1017.3
20260902173748 71 232 2.0 6.0 0.00 0.00 0.00 62 1017.3
20260902173648 71 232 2.0 6.0 0.00 0.00 0.00 62 1017.3
20260902173548 71 226 2.0 8.0 0.00 0.00 0.00 63 1017.2
20260902173448 71 238 2.0 8.0 0.00 0.00 0.00 62 1017.3
20260902173348 71 245 2.0 8.0 0.00 0.00 0.00 63 1017.2
20260902173311 71 259 2.0 8.0 0.00 0.00 0.00 63 1017.2
20260902173242 71 243 2.0 8.0 0.00 0.00 0.00 63 1017.2
20260902173143 71 260 2.0 8.0 0.00 0.00 0.00 63 1017.2
20260902173042 71 239 2.0 8.0 0.00 0.00 0.00 63 1017.2
20260902172942 71 188 2.0 8.0 0.00 0.00 0.00 63 1017.2
20260902172842 71 219 2.0 8.0 0.00 0.00 0.00 64 1017.1
20260902172812 71 242 2.0 8.0 0.00 0.00 0.00 63 1017.2
20260902172742 71 242 2.0 8.0 0.00 0.00 0.00 63 1017.2
20260902172643 71 225 2.0 8.0 0.00 0.00 0.00 63 1017.2
20260902172543 71 242 1.0 6.0 0.00 0.00 0.00 63 1017.2
20260902172535 71 129 2.0 6.0 0.00 0.00 0.00 64 1017.2
20260902172442 71 231 2.0 6.0 0.00 0.00 0.00 63 1017.2
20260902172421 71 143 2.0 6.0 0.00 0.00 0.00 63 1017.2
20260902172242 71 135 2.0 6.0 0.00 0.00 0.00 64 1017.2
20260902172143 71 243 2.0 6.0 0.00 0.00 0.00 64 1017.2
20260902172042 71 230 2.0 6.0 0.00 0.00 0.00 64 1017.2
20260902171942 71 192 2.0 6.0 0.00 0.00 0.00 64 1017.2
20260902171842 70 136 2.0 6.0 0.00 0.00 0.00 64 1017.2
20260902171811 70 143 1.0 6.0 0.00 0.00 0.00 64 1017.2
20260902171742 70 155 1.0 6.0 0.00 0.00 0.00 65 1017.2
20260902171643 70 186 2.0 5.0 0.00 0.00 0.00 65 1017.2
20260902171554 70 186 2.0 5.0 0.00 0.00 0.00 65 1017.2
20260902171441 70 210 2.0 5.0 0.00 0.00 0.00 64 1017.2
20260902171340 70 214 2.0 5.0 0.00 0.00 0.00 64 1017.2
20260902171305 70 218 1.0 5.0 0.00 0.00 0.00 64 1017.1
20260902171240 70 144 1.0 5.0 0.00 0.00 0.00 65 1017.1
20260902171140 70 179 2.0 6.0 0.00 0.00 0.00 65 1017.2
20260902171040 70 239 2.0 6.0 0.00 0.00 0.00 65 1017.2
20260902170941 70 228 2.0 8.0 0.00 0.00 0.00 66 1017.1
20260902170840 70 221 2.0 8.0 0.00 0.00 0.00 65 1017.2
20260902170805 70 217 2.0 8.0 0.00 0.00 0.00 65 1017.2
20260902170740 70 225 2.0 8.0 0.00 0.00 0.00 65 1017.2
20260902170639 70 228 2.0 8.0 0.00 0.00 0.00 66 1017.1
20260902170538 70 267 2.0 8.0 0.00 0.00 0.00 66 1017.1
20260902170438 70 243 2.0 8.0 0.00 0.00 0.00 65 1017.1
20260902170339 70 242 2.0 8.0 0.00 0.00 0.00 65 1017.1
20260902170303 70 231 2.0 8.0 0.00 0.00 0.00 65 1017.1
20260902170236 70 231 2.0 8.0 0.00 0.00 0.00 64 1017.1
20260902170136 70 246 2.0 8.0 0.00 0.00 0.00 65 1017.1
20260902170036 70 186 1.0 8.0 0.00 0.00 0.00 65 1017.1
20260902165936 70 131 1.0 5.0 0.00 0.00 0.00 66 1017.0
20260902165846 66 103 2.0 4.0 0.00 0.00 0.00 73 1016.9
20260902165836 70 143 1.0 5.0 0.00 0.00 0.00 66 1017.1
20260902165802 70 183 1.0 5.0 0.00 0.00 0.00 67 1017.0
20260902165736 70 132 1.0 5.0 0.00 0.00 0.00 67 1017.0
20260902165657 68 218 2.0 5.0 0.00 0.00 0.00 70 1017.0
20260902165651 67 143 2.0 5.0 0.00 0.00 0.00 72 1016.9
20260902165647 67 107 2.0 5.0 0.00 0.00 0.00 72 1016.9
20260902165640 66 121 2.0 5.0 0.00 0.00 0.00 72 1016.9
20260902165637 66 101 2.0 5.0 0.00 0.00 0.00 73 1016.9
20260902165632 69 127 2.0 5.0 0.00 0.00 0.00 67 1017.0
20260902165617 69 129 2.0 5.0 0.00 0.00 0.00 67 1017.0
20260902165605 69 144 2.0 5.0 0.00 0.00 0.00 67 1017.0
20260902165556 69 146 2.0 5.0 0.00 0.00 0.00 67 1017.0
20260902165540 69 146 2.0 5.0 0.00 0.00 0.00 67 1017.1
20260902165535 69 131 2.0 5.0 0.00 0.00 0.00 68 1017.1
20260902165526 69 214 2.0 5.0 0.00 0.00 0.00 68 1017.1
20260902165518 68 133 2.0 5.0 0.00 0.00 0.00 68 1017.1
20260902165510 68 129 2.0 5.0 0.00 0.00 0.00 68 1017.0
20260902165501 68 106 2.0 5.0 0.00 0.00 0.00 69 1017.1
20260902165345 68 155 2.0 5.0 0.00 0.00 0.00 70 1017.0
20260902165337 68 145 2.0 5.0 0.00 0.00 0.00 71 1017.0
20260902165328 67 161 2.0 5.0 0.00 0.00 0.00 70 1017.0
20260902165308 68 70 2.0 5.0 0.00 0.00 0.00 69 1017.0
20260902165256 68 101 2.0 5.0 0.00 0.00 0.00 69 1017.0
20260902165245 68 107 1.0 5.0 0.00 0.00 0.00 70 1017.0
20260902165240 68 103 1.0 5.0 0.00 0.00 0.00 70 1017.0
20260902165231 68 113 1.0 5.0 0.00 0.00 0.00 70 1016.9
20260902165223 67 88 1.0 5.0 0.00 0.00 0.00 71 1016.9
20260902165214 67 129 1.0 3.0 0.00 0.00 0.00 71 1016.9
20260902165205 67 231 1.0 4.0 0.00 0.00 0.00 71 1016.9
20260902165155 67 181 2.0 5.0 0.00 0.00 0.00 71 1016.9
20260902165149 67 225 2.0 5.0 0.00 0.00 0.00 71 1016.9
20260902164002 67 107 2.0 5.0 0.00 0.00 0.00 72 1016.9
20260902163936 67 96 2.0 5.0 0.00 0.00 0.00 72 1016.9
20260902163927 67 121 2.0 5.0 0.00 0.00 0.00 72 1016.9
20260902163702 66 131 2.0 5.0 0.00 0.00 0.00 72 1016.9
20260902163653 66 150 2.0 5.0 0.00 0.00 0.00 73 1016.9
20260902163645 66 173 2.0 5.0 0.00 0.00 0.00 73 1016.9
20260902163636 66 96 2.0 5.0 0.00 0.00 0.00 73 1016.9
20260902162723 66 107 2.0 4.0 0.00 0.00 0.00 73 1016.9
20260902162635 66 120 1.0 4.0 0.00 0.00 0.00 73 1017.0
20260902162631 66 104 1.0 4.0 0.00 0.00 0.00 73 1017.0
20260902162423 66 103 1.0 4.0 0.00 0.00 0.00 74 1017.0
20260902162323 66 114 2.0 4.0 0.00 0.00 0.00 74 1016.9
20260902162306 66 114 2.0 4.0 0.00 0.00 0.00 74 1017.0
20260902162224 66 134 2.0 4.0 0.00 0.00 0.00 74 1017.0
20260902162120 65 143 2.0 4.0 0.00 0.00 0.00 74 1017.0
20260902162021 65 136 2.0 4.0 0.00 0.00 0.00 74 1017.0
20260902161919 65 103 1.0 4.0 0.00 0.00 0.00 75 1017.0
20260902161820 65 108 1.0 4.0 0.00 0.00 0.00 75 1017.1
20260902161802 65 226 1.0 4.0 0.00 0.00 0.00 75 1017.1
20260902161721 65 153 1.0 4.0 0.00 0.00 0.00 75 1017.1
20260902161619 65 110 1.0 4.0 0.00 0.00 0.00 75 1017.1
20260902161518 65 96 1.0 4.0 0.00 0.00 0.00 75 1017.1
20260902161419 65 96 1.0 4.0 0.00 0.00 0.00 75 1017.0
20260902161318 65 110 1.0 4.0 0.00 0.00 0.00 76 1017.1
20260902161301 65 110 1.0 4.0 0.00 0.00 0.00 76 1017.1
20260902161219 65 82 1.0 4.0 0.00 0.00 0.00 76 1017.1
20260902161203 64 91 1.0 3.0 0.00 0.00 0.00 76 1017.1
20260902161158 64 113 1.0 4.0 0.00 0.00 0.00 76 1017.1
20260902161152 64 129 1.0 3.0 0.00 0.00 0.00 77 1017.2
20260902161147 63 135 0.0 2.0 0.00 0.00 0.00 78 1017.2
20260902161143 65 96 1.0 4.0 0.00 0.00 0.00 76 1017.1
20260902161134 65 113 1.0 4.0 0.00 0.00 0.00 76 1017.1
20260902161125 64 113 1.0 4.0 0.00 0.00 0.00 76 1017.0
20260902161043 64 113 1.0 4.0 0.00 0.00 0.00 76 1017.1
20260902161037 64 88 1.0 4.0 0.00 0.00 0.00 76 1017.1
20260902161028 64 162 1.0 4.0 0.00 0.00 0.00 76 1017.1
20260902161019 64 130 1.0 4.0 0.00 0.00 0.00 76 1017.1
20260902161005 64 146 1.0 3.0 0.00 0.00 0.00 76 1017.1
20260902160956 64 91 1.0 3.0 0.00 0.00 0.00 76 1017.1
20260902160947 64 91 1.0 3.0 0.00 0.00 0.00 76 1017.1
20260902160938 64 91 1.0 3.0 0.00 0.00 0.00 77 1017.2
20260902160929 64 97 1.0 3.0 0.00 0.00 0.00 76 1017.1
20260902160920 64 105 1.0 3.0 0.00 0.00 0.00 77 1017.1
20260902160911 64 150 1.0 3.0 0.00 0.00 0.00 77 1017.1
20260902160902 64 155 1.0 3.0 0.00 0.00 0.00 77 1017.2
20260902160746 64 132 1.0 3.0 0.00 0.00 0.00 77 1017.2
20260902160737 64 127 0.0 3.0 0.00 0.00 0.00 77 1017.2
20260902160728 64 106 0.0 3.0 0.00 0.00 0.00 77 1017.2
20260902160715 63 129 0.0 3.0 0.00 0.00 0.00 78 1017.2
20260902160706 63 113 0.0 2.0 0.00 0.00 0.00 78 1017.2
20260902160655 63 113 0.0 2.0 0.00 0.00 0.00 78 1017.2
20260902160648 63 115 0.0 2.0 0.00 0.00 0.00 78 1017.2
20260902155008 63 135 0.0 2.0 0.00 0.00 0.00 78 1017.2
20260902154908 63 141 0.0 2.0 0.00 0.00 0.00 79 1017.2
20260902154810 63 141 0.0 2.0 0.00 0.00 0.00 79 1017.2
20260902154759 63 141 0.0 2.0 0.00 0.00 0.00 79 1017.2
20260902154706 63 141 0.0 2.0 0.00 0.00 0.00 79 1017.2
20260902154607 63 139 0.0 2.0 0.00 0.00 0.00 79 1017.2
20260902154523 62 131 1.0 3.0 0.00 0.00 0.00 80 1017.2
20260902154507 62 141 0.0 2.0 0.00 0.00 0.00 79 1017.2
20260902154418 62 168 0.0 3.0 0.00 0.00 0.00 79 1017.2
20260902154408 62 131 1.0 3.0 0.00 0.00 0.00 80 1017.2
20260902154203 62 146 1.0 4.0 0.00 0.00 0.00 80 1017.2
20260902154114 62 108 1.0 4.0 0.00 0.00 0.00 80 1017.1
20260902154108 62 147 1.0 4.0 0.00 0.00 0.00 80 1017.1
20260902153900 62 107 1.0 4.0 0.00 0.00 0.00 81 1017.1
20260902153806 62 108 1.0 4.0 0.00 0.00 0.00 81 1017.1
20260902153800 62 107 1.0 4.0 0.00 0.00 0.00 81 1017.1
20260902153700 62 108 2.0 4.0 0.00 0.00 0.00 81 1017.0
20260902153601 61 108 2.0 4.0 0.00 0.00 0.00 81 1017.0
20260902153500 61 112 1.0 4.0 0.00 0.00 0.00 81 1017.0
20260902153403 61 106 1.0 4.0 0.00 0.00 0.00 81 1017.0
20260902153354 59 86 1.0 3.0 0.00 0.00 0.00 84 1017.0
20260902153348 60 115 1.0 4.0 0.00 0.00 0.00 83 1017.0
20260902153344 60 96 1.0 4.0 0.00 0.00 0.00 83 1016.9
20260902153338 61 120 1.0 4.0 0.00 0.00 0.00 81 1017.0
20260902153332 61 102 1.0 4.0 0.00 0.00 0.00 81 1017.0
20260902153324 61 117 1.0 4.0 0.00 0.00 0.00 81 1017.0
20260902153315 61 108 1.0 4.0 0.00 0.00 0.00 81 1017.0
20260902153307 61 115 1.0 4.0 0.00 0.00 0.00 82 1017.0
20260902153258 61 115 1.0 4.0 0.00 0.00 0.00 82 1017.0
20260902153248 61 101 1.0 3.0 0.00 0.00 0.00 82 1017.0
20260902153242 61 107 1.0 3.0 0.00 0.00 0.00 82 1017.0
20260902153234 61 110 1.0 2.0 0.00 0.00 0.00 82 1017.0
20260902153225 61 110 1.0 2.0 0.00 0.00 0.00 83 1017.0
20260902153204 60 110 1.0 2.0 0.00 0.00 0.00 83 1017.0
20260902153156 60 110 1.0 3.0 0.00 0.00 0.00 83 1017.0
20260902153140 60 110 1.0 3.0 0.00 0.00 0.00 83 1017.0
20260902153132 60 119 1.0 3.0 0.00 0.00 0.00 83 1017.0
20260902153123 60 118 2.0 3.0 0.00 0.00 0.00 83 1017.0
20260902153115 60 119 2.0 3.0 0.00 0.00 0.00 83 1017.0
20260902153106 60 118 2.0 4.0 0.00 0.00 0.00 83 1017.0
20260902152949 60 115 1.0 4.0 0.00 0.00 0.00 83 1017.0
20260902152832 60 122 1.0 4.0 0.00 0.00 0.00 83 1016.9
20260902152817 60 127 1.0 4.0 0.00 0.00 0.00 83 1016.9
20260902152809 60 115 1.0 4.0 0.00 0.00 0.00 83 1016.9
20260902152753 60 107 1.0 4.0 0.00 0.00 0.00 83 1016.9
20260902152745 60 125 1.0 4.0 0.00 0.00 0.00 83 1016.8
20260902151058 60 104 1.0 4.0 0.00 0.00 0.00 83 1016.9
20260902151022 59 88 1.0 3.0 0.00 0.00 0.00 84 1017.0
20260902151018 60 110 1.0 4.0 0.00 0.00 0.00 83 1016.9
20260902151010 60 113 1.0 3.0 0.00 0.00 0.00 83 1016.9
20260902150652 59 105 1.0 3.0 0.00 0.00 0.00 83 1016.9
20260902150553 59 104 1.0 3.0 0.00 0.00 0.00 84 1017.0
20260902150452 59 132 1.0 3.0 0.00 0.00 0.00 84 1016.9
20260902150356 59 106 0.0 2.0 0.00 0.00 0.00 84 1016.7
20260902150352 59 132 1.0 3.0 0.00 0.00 0.00 84 1016.9
20260902150257 59 105 1.0 3.0 0.00 0.00 0.00 84 1016.8
20260902150250 59 129 1.0 3.0 0.00 0.00 0.00 84 1016.8
20260902150231 59 120 1.0 3.0 0.00 0.00 0.00 84 1016.8
20260902150049 59 105 0.0 2.0 0.00 0.00 0.00 84 1016.8
20260902150036 57 84 0.0 2.0 0.00 0.00 0.00 87 1016.5
20260902150032 57 110 0.0 2.0 0.00 0.00 0.00 87 1016.4
20260902150026 58 110 2.0 4.0 0.00 0.00 0.00 85 1016.4
20260902150018 59 160 0.0 2.0 0.00 0.00 0.00 84 1016.8
20260902150009 59 110 0.0 2.0 0.00 0.00 0.00 84 1016.8
20260902150002 59 106 0.0 2.0 0.00 0.00 0.00 84 1016.7
20260902145848 59 102 0.0 2.0 0.00 0.00 0.00 84 1016.7
20260902145734 59 113 1.0 2.0 0.00 0.00 0.00 85 1016.8
20260902145729 59 113 1.0 3.0 0.00 0.00 0.00 85 1016.7
20260902145724 59 102 0.0 2.0 0.00 0.00 0.00 84 1016.8
20260902145603 59 113 1.0 3.0 0.00 0.00 0.00 85 1016.7
20260902145414 59 113 1.0 3.0 0.00 0.00 0.00 85 1016.7
20260902145250 59 110 1.0 3.0 0.00 0.00 0.00 85 1016.7
20260902145246 59 113 1.0 3.0 0.00 0.00 0.00 85 1016.7
20260902145238 59 113 1.0 3.0 0.00 0.00 0.00 85 1016.7
20260902145229 59 113 1.0 3.0 0.00 0.00 0.00 85 1016.7
20260902145221 59 100 1.0 3.0 0.00 0.00 0.00 85 1016.7
20260902145212 59 110 1.0 3.0 0.00 0.00 0.00 85 1016.7
20260902145202 59 110 1.0 3.0 0.00 0.00 0.00 85 1016.7
20260902145046 59 109 1.0 3.0 0.00 0.00 0.00 85 1016.7
20260902144617 58 108 0.0 2.0 0.00 0.00 0.00 86 1016.5
20260902144609 58 108 1.0 3.0 0.00 0.00 0.00 85 1016.7
20260902144449 58 102 1.0 2.0 0.00 0.00 0.00 85 1016.7
20260902144336 58 100 1.0 2.0 0.00 0.00 0.00 85 1016.7
20260902144327 58 110 2.0 4.0 0.00 0.00 0.00 86 1016.4
20260902144320 58 108 1.0 2.0 0.00 0.00 0.00 85 1016.7
20260902144314 58 107 1.0 2.0 0.00 0.00 0.00 85 1016.7
20260902144305 58 107 1.0 2.0 0.00 0.00 0.00 85 1016.7
20260902144257 58 107 0.0 2.0 0.00 0.00 0.00 85 1016.6
20260902144249 58 120 0.0 2.0 0.00 0.00 0.00 85 1016.6
20260902144240 58 120 0.0 2.0 0.00 0.00 0.00 85 1016.6
20260902143812 57 84 0.0 1.0 0.00 0.00 0.00 86 1016.5
20260902143759 58 120 0.0 2.0 0.00 0.00 0.00 85 1016.5
20260902143646 58 120 0.0 2.0 0.00 0.00 0.00 85 1016.6
20260902143637 58 120 0.0 2.0 0.00 0.00 0.00 85 1016.5
20260902143625 58 120 0.0 2.0 0.00 0.00 0.00 85 1016.5
20260902143616 58 129 0.0 2.0 0.00 0.00 0.00 85 1016.6
20260902143544 58 129 1.0 2.0 0.00 0.00 0.00 85 1016.5
20260902143536 58 129 1.0 3.0 0.00 0.00 0.00 85 1016.5
20260902143527 58 129 1.0 3.0 0.00 0.00 0.00 85 1016.5
20260902143519 58 129 1.0 4.0 0.00 0.00 0.00 85 1016.5
20260902143510 58 96 1.0 4.0 0.00 0.00 0.00 85 1016.5
20260902143454 58 96 2.0 4.0 0.00 0.00 0.00 86 1016.5
20260902143446 58 103 2.0 4.0 0.00 0.00 0.00 85 1016.5
20260902143437 58 102 2.0 4.0 0.00 0.00 0.00 85 1016.5
20260902143424 58 110 2.0 4.0 0.00 0.00 0.00 85 1016.4
20260902143416 58 109 2.0 4.0 0.00 0.00 0.00 85 1016.4
20260902143300 58 110 2.0 4.0 0.00 0.00 0.00 85 1016.4
20260902143251 58 108 2.0 4.0 0.00 0.00 0.00 85 1016.4
20260902143246 58 110 2.0 4.0 0.00 0.00 0.00 86 1016.4
20260902143154 58 105 2.0 3.0 0.00 0.00 0.00 86 1016.4
20260902143145 58 103 2.0 3.0 0.00 0.00 0.00 86 1016.4
20260902143135 58 112 1.0 3.0 0.00 0.00 0.00 86 1016.4
20260902143129 58 102 1.0 3.0 0.00 0.00 0.00 86 1016.4
20260902143121 58 103 1.0 3.0 0.00 0.00 0.00 86 1016.5
20260902143112 58 131 1.0 3.0 0.00 0.00 0.00 86 1016.5
20260902143050 58 101 1.0 3.0 0.00 0.00 0.00 86 1016.5
20260902143038 58 111 1.0 2.0 0.00 0.00 0.00 86 1016.5
20260902141435 57 115 0.0 2.0 0.00 0.00 0.00 86 1016.5
20260902141426 57 79 0.0 2.0 0.00 0.00 0.00 86 1016.5
20260902141418 57 81 0.0 2.0 0.00 0.00 0.00 86 1016.5
20260902141409 57 64 0.0 2.0 0.00 0.00 0.00 86 1016.6
20260902141401 57 84 0.0 1.0 0.00 0.00 0.00 86 1016.5
20260902141245 57 85 0.0 1.0 0.00 0.00 0.00 86 1016.5
20260902141237 57 85 0.0 2.0 0.00 0.00 0.00 86 1016.5
20260902141228 57 117 0.0 2.0 0.00 0.00 0.00 86 1016.5
20260902141216 57 117 0.0 2.0 0.00 0.00 0.00 86 1016.5
20260902141208 57 117 0.0 2.0 0.00 0.00 0.00 86 1016.5
20260902141158 57 117 0.0 2.0 0.00 0.00 0.00 86 1016.5
20260902141152 57 117 0.0 2.0 0.00 0.00 0.00 87 1016.5
20260902141143 57 119 0.0 2.0 0.00 0.00 0.00 87 1016.5
20260902141135 57 118 0.0 2.0 0.00 0.00 0.00 87 1016.5
20260902141126 57 89 0.0 2.0 0.00 0.00 0.00 87 1016.5
20260902141117 57 84 0.0 2.0 0.00 0.00 0.00 87 1016.5
20260902135724 57 83 0.0 2.0 0.00 0.00 0.00 87 1016.5
20260902135622 57 110 0.0 1.0 0.00 0.00 0.00 87 1016.5
20260902135614 57 110 0.0 1.0 0.00 0.00 0.00 87 1016.4
20260902135422 57 110 0.0 1.0 0.00 0.00 0.00 87 1016.4
20260902135358 57 110 0.0 1.0 0.00 0.00 0.00 87 1016.4
20260902135347 57 110 0.0 1.0 0.00 0.00 0.00 87 1016.4
20260902135220 57 110 0.0 1.0 0.00 0.00 0.00 87 1016.4
20260902135127 57 110 0.0 1.0 0.00 0.00 0.00 87 1016.4
20260902135014 57 110 0.0 1.0 0.00 0.00 0.00 87 1016.4
20260902134914 57 110 0.0 1.0 0.00 0.00 0.00 87 1016.5
20260902134814 57 110 0.0 2.0 0.00 0.00 0.00 87 1016.4
20260902134805 57 110 0.0 2.0 0.00 0.00 0.00 87 1016.4
20260902134714 57 110 0.0 2.0 0.00 0.00 0.00 87 1016.4
20260902134616 57 110 0.0 2.0 0.00 0.00 0.00 87 1016.4
20260902134514 57 110 0.0 2.0 0.00 0.00 0.00 87 1016.4
20260902134414 57 110 0.0 2.0 0.00 0.00 0.00 87 1016.4
20260902134314 57 110 0.0 2.0 0.00 0.00 0.00 87 1016.4
20260902134251 57 110 0.0 2.0 0.00 0.00 0.00 87 1016.4
20260902134214 57 110 0.0 2.0 0.00 0.00 0.00 87 1016.3
20260902134115 57 110 0.0 2.0 0.00 0.00 0.00 87 1016.3
20260902134014 57 110 0.0 2.0 0.00 0.00 0.00 87 1016.2
20260902133914 57 110 0.0 2.0 0.00 0.00 0.00 87 1016.2
20260902133807 57 110 0.0 1.0 0.00 0.00 0.00 87 1016.3
20260902133752 57 110 0.0 1.0 0.00 0.00 0.00 87 1016.3
20260902133709 57 110 0.0 1.0 0.00 0.00 0.00 87 1016.3
20260902133609 57 110 0.0 1.0 0.00 0.00 0.00 87 1016.3
20260902133508 57 110 0.0 1.0 0.00 0.00 0.00 87 1016.3
20260902133409 57 110 0.0 1.0 0.00 0.00 0.00 87 1016.2
20260902133308 57 110 0.0 1.0 0.00 0.00 0.00 87 1016.2
20260902133249 57 110 0.0 1.0 0.00 0.00 0.00 87 1016.2
20260902133208 57 110 0.0 1.0 0.00 0.00 0.00 87 1016.2
20260902133109 57 110 0.0 1.0 0.00 0.00 0.00 87 1016.2
20260902133009 57 110 0.0 1.0 0.00 0.00 0.00 87 1016.2
20260902132908 57 110 0.0 1.0 0.00 0.00 0.00 87 1016.2
20260902132808 57 110 0.0 1.0 0.00 0.00 0.00 87 1016.2
20260902132749 57 110 0.0 1.0 0.00 0.00 0.00 87 1016.2
20260902132709 57 110 0.0 1.0 0.00 0.00 0.00 87 1016.2
20260902132607 57 110 0.0 2.0 0.00 0.00 0.00 87 1016.1
20260902132506 57 110 0.0 2.0 0.00 0.00 0.00 87 1016.1
20260902132406 57 110 0.0 2.0 0.00 0.00 0.00 86 1016.1
20260902132250 57 110 0.0 2.0 0.00 0.00 0.00 86 1016.0
20260902132203 57 110 0.0 2.0 0.00 0.00 0.00 87 1016.0
20260902132058 57 110 0.0 2.0 0.00 0.00 0.00 87 1016.0
20260902131957 57 110 0.0 2.0 0.00 0.00 0.00 86 1016.0
20260902131856 57 110 0.0 2.0 0.00 0.00 0.00 86 1016.0
20260902131802 57 110 0.0 2.0 0.00 0.00 0.00 86 1016.0
20260902131657 57 105 0.0 2.0 0.00 0.00 0.00 86 1016.0
20260902131557 57 105 0.0 2.0 0.00 0.00 0.00 86 1016.0
20260902131456 57 114 0.0 2.0 0.00 0.00 0.00 86 1016.0
20260902131357 57 114 0.0 2.0 0.00 0.00 0.00 86 1015.9
20260902131300 57 114 0.0 2.0 0.00 0.00 0.00 86 1015.9
20260902131250 57 115 0.0 2.0 0.00 0.00 0.00 86 1015.9
20260902131156 57 114 0.0 1.0 0.00 0.00 0.00 86 1016.0
20260902131057 57 110 0.0 1.0 0.00 0.00 0.00 86 1015.9
20260902130956 57 110 0.0 1.0 0.00 0.00 0.00 86 1015.9
20260902130856 57 110 0.0 1.0 0.00 0.00 0.00 86 1015.9
20260902130750 57 79 0.0 1.0 0.00 0.00 0.00 86 1015.9
20260902130656 57 79 0.0 1.0 0.00 0.00 0.00 86 1016.0
20260902130558 57 75 0.0 1.0 0.00 0.00 0.00 86 1016.0
20260902130456 57 75 0.0 1.0 0.00 0.00 0.00 87 1016.0
20260902130356 57 75 0.0 1.0 0.00 0.00 0.00 87 1016.0
20260902130247 57 75 0.0 1.0 0.00 0.00 0.00 87 1016.0
20260902130232 57 94 0.0 1.0 0.00 0.00 0.00 87 1015.9
20260902130154 57 75 0.0 1.0 0.00 0.00 0.00 87 1016.0
20260902130115 57 75 0.0 1.0 0.00 0.00 0.00 87 1016.0
20260902125954 57 75 0.0 1.0 0.00 0.00 0.00 87 1015.9
20260902125906 57 93 0.0 1.0 0.00 0.00 0.00 87 1015.9
20260902125857 57 93 0.0 1.0 0.00 0.00 0.00 87 1015.9
20260902125654 57 93 0.0 1.0 0.00 0.00 0.00 87 1015.9
20260902125555 57 94 0.0 1.0 0.00 0.00 0.00 87 1015.9
20260902125454 57 94 0.0 1.0 0.00 0.00 0.00 87 1015.9
20260902125355 57 94 0.0 2.0 0.00 0.00 0.00 86 1015.9
20260902125254 57 93 1.0 2.0 0.00 0.00 0.00 86 1015.9
20260902125243 57 94 1.0 2.0 0.00 0.00 0.00 86 1015.9
20260902125154 57 93 1.0 2.0 0.00 0.00 0.00 86 1015.8
20260902125055 57 94 1.0 2.0 0.00 0.00 0.00 86 1015.9
20260902124954 57 93 1.0 2.0 0.00 0.00 0.00 86 1015.9
20260902124855 57 93 1.0 2.0 0.00 0.00 0.00 86 1015.9
20260902124743 57 89 1.0 2.0 0.00 0.00 0.00 86 1015.9
20260902124652 57 68 0.0 2.0 0.00 0.00 0.00 87 1015.9
20260902124553 57 68 0.0 2.0 0.00 0.00 0.00 87 1015.9
20260902124451 57 68 0.0 2.0 0.00 0.00 0.00 87 1015.9
20260902124350 58 77 0.0 2.0 0.00 0.00 0.00 87 1015.9
20260902124241 58 57 0.0 2.0 0.00 0.00 0.00 87 1015.9
20260902124150 58 116 0.0 1.0 0.00 0.00 0.00 87 1015.9
20260902124051 58 116 0.0 1.0 0.00 0.00 0.00 87 1015.9
20260902123950 58 115 0.0 1.0 0.00 0.00 0.00 87 1015.9
20260902123848 58 116 0.0 1.0 0.00 0.00 0.00 87 1015.9
20260902123741 58 116 0.0 1.0 0.00 0.00 0.00 87 1015.9
20260902123649 58 116 0.0 2.0 0.00 0.00 0.00 87 1016.0
20260902123553 58 115 1.0 4.0 0.00 0.00 0.00 86 1016.0
20260902123451 58 115 1.0 4.0 0.00 0.00 0.00 86 1016.0
20260902123348 58 116 1.0 4.0 0.00 0.00 0.00 86 1016.0
20260902123242 58 115 1.0 4.0 0.00 0.00 0.00 86 1016.0
20260902123148 58 116 1.0 4.0 0.00 0.00 0.00 86 1016.0
20260902123052 58 116 1.0 4.0 0.00 0.00 0.00 86 1016.0
20260902122948 58 115 1.0 4.0 0.00 0.00 0.00 87 1016.0
20260902122848 58 116 1.0 4.0 0.00 0.00 0.00 87 1015.9
20260902122752 58 113 1.0 4.0 0.00 0.00 0.00 87 1016.0
20260902122742 58 106 1.0 4.0 0.00 0.00 0.00 87 1016.0
20260902122649 58 103 1.0 4.0 0.00 0.00 0.00 87 1015.9
20260902122545 58 78 1.0 4.0 0.00 0.00 0.00 87 1015.9
20260902122445 58 101 0.0 4.0 0.00 0.00 0.00 87 1016.0
20260902122344 58 104 0.0 4.0 0.00 0.00 0.00 87 1016.0
20260902122245 58 132 0.0 1.0 0.00 0.00 0.00 87 1015.9
20260902122144 58 103 0.0 1.0 0.00 0.00 0.00 87 1015.9
20260902122042 58 103 0.0 1.0 0.00 0.00 0.00 87 1015.9
20260902121942 58 103 0.0 1.0 0.00 0.00 0.00 87 1016.0
20260902121842 58 103 0.0 1.0 0.00 0.00 0.00 87 1015.9
20260902121744 58 103 0.0 1.0 0.00 0.00 0.00 87 1015.9
20260902121643 58 103 0.0 1.0 0.00 0.00 0.00 87 1015.9
20260902121543 58 103 0.0 1.0 0.00 0.00 0.00 87 1015.9
20260902121443 58 103 0.0 1.0 0.00 0.00 0.00 87 1015.9
20260902121342 58 103 0.0 1.0 0.00 0.00 0.00 87 1015.9
20260902121237 58 103 0.0 1.0 0.00 0.00 0.00 87 1015.9
20260902121142 58 103 0.0 1.0 0.00 0.00 0.00 87 1015.9
20260902121042 58 103 0.0 1.0 0.00 0.00 0.00 87 1015.9
20260902121005 58 103 0.0 1.0 0.00 0.00 0.00 87 1015.9
20260902120942 58 103 0.0 1.0 0.00 0.00 0.00 87 1015.9
20260902120858 58 103 0.0 1.0 0.00 0.00 0.00 87 1015.9
20260902120848 58 103 0.0 1.0 0.00 0.00 0.00 87 1015.9
20260902120640 58 103 0.0 1.0 0.00 0.00 0.00 87 1015.8
20260902120539 58 103 0.0 1.0 0.00 0.00 0.00 87 1015.8
20260902120438 58 103 0.0 1.0 0.00 0.00 0.00 87 1015.8
20260902120338 58 103 0.0 1.0 0.00 0.00 0.00 87 1015.9
20260902120239 58 103 0.0 1.0 0.00 0.00 0.00 87 1015.9
20260902120138 58 103 0.0 1.0 0.00 0.00 0.00 87 1015.9
20260902120038 58 103 0.0 1.0 0.00 0.00 0.00 87 1015.9
20260902115938 58 103 0.0 1.0 0.00 0.00 0.00 87 1015.9
20260902115838 58 103 0.0 1.0 0.00 0.00 0.00 87 1015.8
20260902115733 58 103 0.0 1.0 0.00 0.00 0.00 86 1015.8
20260902115638 58 103 0.0 1.0 0.00 0.00 0.00 86 1015.8
20260902115536 58 103 0.0 1.0 0.00 0.00 0.00 86 1015.8
20260902115504 58 103 0.0 2.0 0.00 0.00 0.00 86 1015.8
20260902115436 58 103 0.0 1.0 0.00 0.00 0.00 86 1015.8
20260902115348 58 103 0.0 2.0 0.00 0.00 0.00 86 1015.7
20260902115339 58 103 0.0 2.0 0.00 0.00 0.00 86 1015.8
20260902115136 58 103 0.0 2.0 0.00 0.00 0.00 86 1015.8
20260902115036 58 103 0.0 2.0 0.00 0.00 0.00 86 1015.8
20260902114936 58 103 0.0 2.0 0.00 0.00 0.00 86 1015.8
20260902114836 58 103 0.0 2.0 0.00 0.00 0.00 86 1015.8
20260902114729 58 103 0.0 2.0 0.00 0.00 0.00 86 1015.8
20260902114634 58 103 0.0 2.0 0.00 0.00 0.00 86 1015.8
20260902114534 58 103 0.0 2.0 0.00 0.00 0.00 86 1015.8
20260902114452 58 110 0.0 2.0 0.00 0.00 0.00 86 1015.9
20260902114434 58 103 0.0 2.0 0.00 0.00 0.00 86 1015.8
20260902114348 58 103 0.0 2.0 0.00 0.00 0.00 86 1015.8
20260902114338 58 110 0.0 2.0 0.00 0.00 0.00 86 1015.9
20260902114130 58 110 0.0 2.0 0.00 0.00 0.00 86 1015.9
20260902114030 58 110 0.0 2.0 0.00 0.00 0.00 86 1015.9
20260902113930 58 110 0.0 2.0 0.00 0.00 0.00 86 1015.8
20260902113831 58 110 0.0 2.0 0.00 0.00 0.00 86 1015.8
20260902113726 58 110 0.0 2.0 0.00 0.00 0.00 86 1015.9
20260902113626 58 110 0.0 2.0 0.00 0.00 0.00 86 1015.9
20260902113526 58 110 0.0 1.0 0.00 0.00 0.00 86 1015.9
20260902113424 58 110 0.0 2.0 0.00 0.00 0.00 86 1015.9
20260902113322 58 110 0.0 3.0 0.00 0.00 0.00 86 1015.9
20260902113222 58 149 0.0 3.0 0.00 0.00 0.00 86 1015.9
20260902113122 58 150 0.0 3.0 0.00 0.00 0.00 86 1015.8
20260902113023 58 150 0.0 3.0 0.00 0.00 0.00 85 1015.8
20260902112922 58 150 0.0 3.0 0.00 0.00 0.00 85 1015.8
20260902112822 58 133 0.0 3.0 0.00 0.00 0.00 85 1015.8
20260902112741 58 133 0.0 3.0 0.00 0.00 0.00 85 1015.8
20260902112721 58 132 0.0 3.0 0.00 0.00 0.00 85 1015.8
20260902112620 58 132 0.0 3.0 0.00 0.00 0.00 85 1015.8
20260902112520 58 132 0.0 3.0 0.00 0.00 0.00 85 1015.8
20260902112420 58 134 0.0 3.0 0.00 0.00 0.00 85 1015.8
20260902112320 58 141 0.0 2.0 0.00 0.00 0.00 85 1015.8
20260902112220 58 141 0.0 2.0 0.00 0.00 0.00 85 1015.8
20260902112118 58 141 1.0 3.0 0.00 0.00 0.00 85 1015.8
20260902112014 58 141 1.0 3.0 0.00 0.00 0.00 85 1015.8
20260902111913 58 141 1.0 3.0 0.00 0.00 0.00 85 1015.8
20260902111812 58 141 1.0 3.0 0.00 0.00 0.00 85 1015.8
20260902111727 59 141 1.0 3.0 0.00 0.00 0.00 85 1015.8
20260902111712 59 141 1.0 3.0 0.00 0.00 0.00 85 1015.7
20260902111612 59 141 1.0 3.0 0.00 0.00 0.00 85 1015.8
20260902111512 59 141 1.0 3.0 0.00 0.00 0.00 85 1015.7
20260902111426 59 146 1.0 3.0 0.00 0.00 0.00 85 1015.8
20260902111312 58 145 1.0 3.0 0.00 0.00 0.00 85 1015.7
20260902111227 58 127 1.0 3.0 0.00 0.00 0.00 85 1015.7
20260902111212 58 155 1.0 3.0 0.00 0.00 0.00 85 1015.7
20260902111113 58 166 1.0 3.0 0.00 0.00 0.00 85 1015.7
20260902111012 58 144 1.0 2.0 0.00 0.00 0.00 85 1015.7
20260902110952 58 138 1.0 2.0 0.00 0.00 0.00 85 1015.7
20260902110912 58 139 1.0 2.0 0.00 0.00 0.00 85 1015.7
20260902110839 58 138 1.0 2.0 0.00 0.00 0.00 85 1015.7
20260902110711 58 138 1.0 2.0 0.00 0.00 0.00 85 1015.7
20260902110610 58 138 1.0 2.0 0.00 0.00 0.00 85 1015.8
20260902110510 58 139 1.0 2.0 0.00 0.00 0.00 85 1015.8
20260902110411 58 138 1.0 2.0 0.00 0.00 0.00 85 1015.8
20260902110310 58 129 1.0 2.0 0.00 0.00 0.00 85 1015.8
20260902110238 58 128 1.0 2.0 0.00 0.00 0.00 85 1015.8
20260902110208 58 129 1.0 2.0 0.00 0.00 0.00 85 1015.8
20260902110108 58 129 1.0 2.0 0.00 0.00 0.00 85 1015.8
20260902110008 58 139 1.0 2.0 0.00 0.00 0.00 85 1015.9
20260902105906 58 131 1.0 2.0 0.00 0.00 0.00 85 1015.9
20260902105806 58 129 1.0 2.0 0.00 0.00 0.00 85 1015.9
20260902105721 58 132 1.0 2.0 0.00 0.00 0.00 85 1015.9
20260902105706 58 124 1.0 2.0 0.00 0.00 0.00 85 1015.9
20260902105606 58 137 1.0 2.0 0.00 0.00 0.00 85 1015.9
20260902105506 58 138 1.0 2.0 0.00 0.00 0.00 85 1016.0
20260902105444 58 129 0.0 2.0 0.00 0.00 0.00 85 1016.0
20260902105406 58 148 1.0 2.0 0.00 0.00 0.00 85 1016.0
20260902105330 58 148 0.0 2.0 0.00 0.00 0.00 85 1016.0
20260902105205 58 129 0.0 2.0 0.00 0.00 0.00 85 1016.1
20260902105106 58 129 0.0 2.0 0.00 0.00 0.00 85 1016.0
20260902105006 58 124 0.0 2.0 0.00 0.00 0.00 85 1016.1
20260902104906 58 129 0.0 2.0 0.00 0.00 0.00 85 1016.1
20260902104806 58 158 0.0 1.0 0.00 0.00 0.00 85 1016.1
20260902104706 58 158 0.0 1.0 0.00 0.00 0.00 85 1016.1
20260902104607 58 158 0.0 1.0 0.00 0.00 0.00 86 1016.1
20260902104505 58 158 0.0 1.0 0.00 0.00 0.00 85 1016.1
20260902104404 58 132 0.0 2.0 0.00 0.00 0.00 85 1016.0
20260902104304 58 132 0.0 2.0 0.00 0.00 0.00 85 1016.0
20260902104220 58 133 0.0 2.0 0.00 0.00 0.00 85 1016.0
20260902104204 58 132 0.0 2.0 0.00 0.00 0.00 85 1016.0
20260902104102 58 132 0.0 2.0 0.00 0.00 0.00 85 1016.0
20260902104003 58 110 0.0 2.0 0.00 0.00 0.00 85 1016.0
20260902103943 58 110 0.0 2.0 0.00 0.00 0.00 85 1016.0
20260902103902 58 110 0.0 2.0 0.00 0.00 0.00 85 1016.0
20260902103832 58 110 0.0 2.0 0.00 0.00 0.00 85 1016.0
20260902103701 58 110 1.0 2.0 0.00 0.00 0.00 85 1016.0
20260902103602 58 110 1.0 2.0 0.00 0.00 0.00 85 1016.0
20260902103503 58 110 1.0 3.0 0.00 0.00 0.00 85 1016.0
20260902103445 58 212 1.0 3.0 0.00 0.00 0.00 85 1016.0
20260902103402 58 212 1.0 3.0 0.00 0.00 0.00 85 1016.0
20260902103330 58 212 1.0 3.0 0.00 0.00 0.00 85 1016.0
20260902103200 58 212 1.0 3.0 0.00 0.00 0.00 85 1016.0
20260902103100 58 193 1.0 3.0 0.00 0.00 0.00 85 1016.1
20260902103001 58 193 1.0 3.0 0.00 0.00 0.00 85 1016.1
20260902102900 58 124 1.0 3.0 0.00 0.00 0.00 85 1016.1
20260902102758 58 124 1.0 3.0 0.00 0.00 0.00 85 1016.1
20260902102719 58 127 1.0 3.0 0.00 0.00 0.00 85 1016.1
20260902102656 58 116 1.0 3.0 0.00 0.00 0.00 85 1016.1
20260902102557 58 155 1.0 3.0 0.00 0.00 0.00 85 1016.1
20260902102503 58 133 1.0 3.0 0.00 0.00 0.00 85 1016.1
20260902102357 58 136 1.0 3.0 0.00 0.00 0.00 85 1016.1
20260902102257 58 134 1.0 3.0 0.00 0.00 0.00 85 1016.1
20260902102218 58 139 1.0 2.0 0.00 0.00 0.00 85 1016.1
20260902102156 58 138 1.0 2.0 0.00 0.00 0.00 85 1016.1
20260902102056 58 139 0.0 2.0 0.00 0.00 0.00 85 1016.1
20260902101956 58 141 0.0 2.0 0.00 0.00 0.00 85 1016.2
20260902101856 58 141 0.0 2.0 0.00 0.00 0.00 85 1016.2
20260902101756 58 136 0.0 1.0 0.00 0.00 0.00 85 1016.2
20260902101718 58 136 0.0 1.0 0.00 0.00 0.00 85 1016.2
20260902101656 58 136 0.0 1.0 0.00 0.00 0.00 85 1016.2
20260902101557 58 136 0.0 1.0 0.00 0.00 0.00 85 1016.3
20260902101456 58 136 0.0 1.0 0.00 0.00 0.00 85 1016.2
20260902101356 58 137 0.0 2.0 0.00 0.00 0.00 85 1016.3
20260902101256 58 136 0.0 2.0 0.00 0.00 0.00 85 1016.3
20260902101215 58 137 0.0 2.0 0.00 0.00 0.00 85 1016.3
20260902101154 58 121 0.0 2.0 0.00 0.00 0.00 85 1016.3
20260902101053 58 117 0.0 2.0 0.00 0.00 0.00 85 1016.3
20260902100953 58 115 0.0 2.0 0.00 0.00 0.00 85 1016.3
20260902100852 58 103 0.0 2.0 0.00 0.00 0.00 85 1016.3
20260902100752 58 103 0.0 2.0 0.00 0.00 0.00 85 1016.3
20260902100713 58 103 0.0 2.0 0.00 0.00 0.00 85 1016.3
20260902100652 58 103 0.0 2.0 0.00 0.00 0.00 85 1016.3
20260902100553 58 103 0.0 2.0 0.00 0.00 0.00 85 1016.3
20260902100451 58 103 0.0 2.0 0.00 0.00 0.00 85 1016.3
20260902100352 58 101 0.0 2.0 0.00 0.00 0.00 85 1016.3
20260902100252 58 100 0.0 2.0 0.00 0.00 0.00 85 1016.3
20260902100208 58 115 0.0 1.0 0.00 0.00 0.00 85 1016.3
20260902100150 58 127 0.0 1.0 0.00 0.00 0.00 85 1016.3
20260902100051 58 127 0.0 1.0 0.00 0.00 0.00 85 1016.3
20260902095950 58 127 1.0 1.0 0.00 0.00 0.00 85 1016.3
20260902095851 58 127 1.0 2.0 0.00 0.00 0.00 86 1016.3
20260902095708 58 127 1.0 2.0 0.00 0.00 0.00 86 1016.3
20260902095648 58 127 1.0 2.0 0.00 0.00 0.00 86 1016.3
20260902095549 58 127 1.0 2.0 0.00 0.00 0.00 86 1016.3
20260902095448 58 127 1.0 2.0 0.00 0.00 0.00 86 1016.3
20260902095429 58 127 1.0 2.0 0.00 0.00 0.00 86 1016.3
20260902095349 58 127 1.0 2.0 0.00 0.00 0.00 86 1016.3
20260902095319 58 127 1.0 2.0 0.00 0.00 0.00 86 1016.3
20260902095148 58 127 1.0 2.0 0.00 0.00 0.00 86 1016.3
20260902095049 58 124 0.0 2.0 0.00 0.00 0.00 86 1016.3
20260902094948 58 124 0.0 2.0 0.00 0.00 0.00 86 1016.3
20260902094848 58 124 0.0 2.0 0.00 0.00 0.00 86 1016.2
20260902094746 58 124 0.0 2.0 0.00 0.00 0.00 86 1016.3
20260902094720 58 124 0.0 2.0 0.00 0.00 0.00 86 1016.2
20260902094646 58 124 0.0 1.0 0.00 0.00 0.00 86 1016.2
20260902094547 58 134 0.0 1.0 0.00 0.00 0.00 86 1016.2
20260902094444 58 134 0.0 1.0 0.00 0.00 0.00 86 1016.2
20260902094344 58 134 0.0 1.0 0.00 0.00 0.00 86 1016.2
20260902094244 58 134 0.0 2.0 0.00 0.00 0.00 86 1016.2
20260902094206 58 134 0.0 2.0 0.00 0.00 0.00 86 1016.2
20260902094144 58 134 0.0 2.0 0.00 0.00 0.00 86 1016.2
20260902094042 58 134 0.0 2.0 0.00 0.00 0.00 86 1016.2
20260902093942 58 134 1.0 3.0 0.00 0.00 0.00 86 1016.2
20260902093843 58 134 1.0 4.0 0.00 0.00 0.00 86 1016.2
20260902093740 58 134 1.0 4.0 0.00 0.00 0.00 86 1016.2
20260902093706 58 134 1.0 4.0 0.00 0.00 0.00 86 1016.3
20260902093638 58 136 1.0 4.0 0.00 0.00 0.00 86 1016.3
20260902093538 58 136 1.0 4.0 0.00 0.00 0.00 86 1016.3
20260902093440 58 135 1.0 4.0 0.00 0.00 0.00 86 1016.3
20260902093333 58 136 1.0 4.0 0.00 0.00 0.00 86 1016.3
20260902093234 58 138 1.0 4.0 0.00 0.00 0.00 86 1016.3
20260902093204 58 139 1.0 4.0 0.00 0.00 0.00 86 1016.3
20260902093135 58 138 1.0 4.0 0.00 0.00 0.00 86 1016.3
20260902093032 58 139 1.0 4.0 0.00 0.00 0.00 86 1016.3
20260902092932 58 131 1.0 4.0 0.00 0.00 0.00 85 1016.3
20260902092832 58 137 1.0 4.0 0.00 0.00 0.00 85 1016.3
20260902092730 58 130 1.0 4.0 0.00 0.00 0.00 85 1016.3
20260902092701 58 129 0.0 4.0 0.00 0.00 0.00 85 1016.3
20260902092630 58 149 0.0 4.0 0.00 0.00 0.00 85 1016.3
20260902092530 58 99 1.0 4.0 0.00 0.00 0.00 85 1016.3
20260902092434 58 99 1.0 4.0 0.00 0.00 0.00 85 1016.3
20260902092331 58 113 0.0 4.0 0.00 0.00 0.00 85 1016.3
20260902092228 58 97 0.0 2.0 0.00 0.00 0.00 85 1016.3
20260902092201 58 115 0.0 2.0 0.00 0.00 0.00 85 1016.3
20260902092128 58 115 0.0 2.0 0.00 0.00 0.00 85 1016.3
20260902092028 58 141 0.0 2.0 0.00 0.00 0.00 85 1016.3
20260902091928 58 141 0.0 2.0 0.00 0.00 0.00 85 1016.3
20260902091828 58 108 0.0 2.0 0.00 0.00 0.00 85 1016.3
20260902091728 58 108 0.0 2.0 0.00 0.00 0.00 85 1016.3
20260902091701 58 108 0.0 2.0 0.00 0.00 0.00 85 1016.3
20260902091628 58 108 0.0 2.0 0.00 0.00 0.00 85 1016.3
20260902091529 58 107 0.0 1.0 0.00 0.00 0.00 85 1016.3
20260902091433 58 108 0.0 2.0 0.00 0.00 0.00 85 1016.3
20260902091329 58 107 0.0 2.0 0.00 0.00 0.00 85 1016.3
20260902091228 58 108 0.0 2.0 0.00 0.00 0.00 85 1016.3
20260902091159 58 108 1.0 2.0 0.00 0.00 0.00 85 1016.3
20260902091128 58 107 1.0 2.0 0.00 0.00 0.00 85 1016.3
20260902091028 58 107 1.0 2.0 0.00 0.00 0.00 85 1016.3
20260902090928 58 108 1.0 2.0 0.00 0.00 0.00 84 1016.3
20260902090828 58 108 1.0 2.0 0.00 0.00 0.00 84 1016.3
20260902090728 58 107 1.0 2.0 0.00 0.00 0.00 84 1016.3
20260902090659 58 107 1.0 2.0 0.00 0.00 0.00 85 1016.2
20260902090626 58 108 1.0 4.0 0.00 0.00 0.00 85 1016.2
20260902090526 58 108 1.0 4.0 0.00 0.00 0.00 85 1016.2
20260902090429 58 103 1.0 4.0 0.00 0.00 0.00 85 1016.2
20260902090224 58 113 1.0 4.0 0.00 0.00 0.00 85 1016.2
20260902090210 58 113 1.0 4.0 0.00 0.00 0.00 85 1016.2
20260902090125 58 113 1.0 4.0 0.00 0.00 0.00 85 1016.2
20260902090024 58 143 1.0 4.0 0.00 0.00 0.00 84 1016.2
20260902085927 58 143 1.0 4.0 0.00 0.00 0.00 84 1016.2
20260902085919 58 154 2.0 4.0 0.00 0.00 0.00 84 1016.2
20260902085824 58 143 1.0 4.0 0.00 0.00 0.00 84 1016.2
20260902085808 58 143 2.0 4.0 0.00 0.00 0.00 84 1016.2
20260902085620 58 143 2.0 4.0 0.00 0.00 0.00 84 1016.2
20260902085520 58 117 2.0 4.0 0.00 0.00 0.00 84 1016.2
20260902085420 58 135 2.0 4.0 0.00 0.00 0.00 84 1016.2
20260902085320 58 176 2.0 4.0 0.00 0.00 0.00 84 1016.2
20260902085220 58 146 2.0 4.0 0.00 0.00 0.00 84 1016.2
20260902085157 58 145 2.0 4.0 0.00 0.00 0.00 84 1016.2
20260902085120 58 136 2.0 4.0 0.00 0.00 0.00 84 1016.2
20260902085020 58 148 2.0 4.0 0.00 0.00 0.00 84 1016.2
20260902084920 58 137 2.0 4.0 0.00 0.00 0.00 84 1016.2
20260902084820 58 135 2.0 4.0 0.00 0.00 0.00 84 1016.2
20260902084720 58 131 2.0 4.0 0.00 0.00 0.00 84 1016.2
20260902084657 58 131 1.0 4.0 0.00 0.00 0.00 84 1016.2
20260902084619 58 122 1.0 4.0 0.00 0.00 0.00 85 1016.2
20260902084518 58 131 1.0 4.0 0.00 0.00 0.00 84 1016.2
20260902084418 58 121 1.0 4.0 0.00 0.00 0.00 84 1016.2
20260902084318 58 139 1.0 4.0 0.00 0.00 0.00 84 1016.2
20260902084218 58 143 1.0 5.0 0.00 0.00 0.00 84 1016.3
20260902084155 58 129 1.0 5.0 0.00 0.00 0.00 84 1016.3
20260902084118 58 135 1.0 5.0 0.00 0.00 0.00 85 1016.3
20260902084016 58 191 1.0 5.0 0.00 0.00 0.00 84 1016.3
20260902083916 58 210 1.0 5.0 0.00 0.00 0.00 85 1016.3
20260902083816 58 210 1.0 5.0 0.00 0.00 0.00 84 1016.2
20260902083716 58 139 1.0 5.0 0.00 0.00 0.00 84 1016.2
20260902083653 58 138 1.0 5.0 0.00 0.00 0.00 84 1016.2
20260902083616 58 139 1.0 5.0 0.00 0.00 0.00 84 1016.2
20260902083516 58 146 1.0 5.0 0.00 0.00 0.00 84 1016.2
20260902083416 58 145 1.0 5.0 0.00 0.00 0.00 84 1016.2
20260902083316 58 145 1.0 5.0 0.00 0.00 0.00 84 1016.2
20260902083216 58 143 1.0 4.0 0.00 0.00 0.00 84 1016.2
20260902083154 58 131 1.0 4.0 0.00 0.00 0.00 84 1016.2
20260902083116 58 117 1.0 3.0 0.00 0.00 0.00 84 1016.2
20260902083016 58 133 1.0 3.0 0.00 0.00 0.00 84 1016.2
20260902082916 58 146 2.0 5.0 0.00 0.00 0.00 84 1016.2
20260902082815 58 129 2.0 5.0 0.00 0.00 0.00 84 1016.2
20260902082716 58 136 2.0 5.0 0.00 0.00 0.00 84 1016.2
20260902082653 58 135 2.0 5.0 0.00 0.00 0.00 84 1016.2
20260902082615 58 124 2.0 5.0 0.00 0.00 0.00 84 1016.2
20260902082514 58 146 2.0 5.0 0.00 0.00 0.00 84 1016.2
20260902082424 58 140 2.0 5.0 0.00 0.00 0.00 84 1016.2
20260902082414 58 136 2.0 5.0 0.00 0.00 0.00 84 1016.2
20260902082314 58 165 2.0 5.0 0.00 0.00 0.00 84 1016.2
20260902082308 58 139 2.0 5.0 0.00 0.00 0.00 84 1016.2
20260902082112 58 158 2.0 5.0 0.00 0.00 0.00 84 1016.2
20260902082013 58 156 2.0 5.0 0.00 0.00 0.00 84 1016.2
20260902081912 58 134 1.0 3.0 0.00 0.00 0.00 84 1016.2
20260902081812 58 136 1.0 3.0 0.00 0.00 0.00 84 1016.2
20260902081712 58 159 1.0 3.0 0.00 0.00 0.00 84 1016.2
20260902081651 58 135 1.0 3.0 0.00 0.00 0.00 84 1016.2
20260902081610 58 146 1.0 3.0 0.00 0.00 0.00 84 1016.1
20260902081510 58 163 1.0 3.0 0.00 0.00 0.00 84 1016.2
20260902081410 58 146 1.0 3.0 0.00 0.00 0.00 84 1016.2
20260902081310 58 146 1.0 3.0 0.00 0.00 0.00 84 1016.2
20260902081210 58 145 1.0 3.0 0.00 0.00 0.00 84 1016.1
20260902081151 58 159 1.0 2.0 0.00 0.00 0.00 84 1016.1
20260902081110 58 146 1.0 3.0 0.00 0.00 0.00 84 1016.2
20260902081010 58 143 1.0 3.0 0.00 0.00 0.00 83 1016.1
20260902080907 58 137 1.0 3.0 0.00 0.00 0.00 83 1016.2
20260902080804 58 169 1.0 3.0 0.00 0.00 0.00 84 1016.2
20260902080704 58 93 1.0 3.0 0.00 0.00 0.00 84 1016.1
20260902080649 58 94 1.0 3.0 0.00 0.00 0.00 84 1016.1
20260902080602 58 96 1.0 3.0 0.00 0.00 0.00 84 1016.1
20260902080502 58 116 1.0 3.0 0.00 0.00 0.00 84 1016.1
20260902080356 58 132 1.0 3.0 0.00 0.00 0.00 83 1016.1
20260902080256 59 133 1.0 3.0 0.00 0.00 0.00 83 1016.1
20260902080159 59 150 1.0 3.0 0.00 0.00 0.00 83 1016.2
20260902080149 59 161 1.0 3.0 0.00 0.00 0.00 83 1016.2
20260902080058 59 138 1.0 2.0 0.00 0.00 0.00 83 1016.1
20260902075957 59 146 1.0 2.0 0.00 0.00 0.00 83 1016.1
20260902075856 59 146 1.0 2.0 0.00 0.00 0.00 83 1016.1
20260902075756 59 99 1.0 3.0 0.00 0.00 0.00 83 1016.1
20260902075650 59 99 1.0 3.0 0.00 0.00 0.00 83 1016.0
20260902075555 59 99 1.0 3.0 0.00 0.00 0.00 83 1016.1
20260902075453 59 99 1.0 3.0 0.00 0.00 0.00 83 1016.1
20260902075352 59 99 1.0 3.0 0.00 0.00 0.00 83 1016.0
20260902075252 59 136 2.0 4.0 0.00 0.00 0.00 83 1016.0
20260902075153 59 136 2.0 6.0 0.00 0.00 0.00 83 1016.0
20260902075053 59 136 2.0 6.0 0.00 0.00 0.00 83 1016.0
20260902074951 59 148 2.0 6.0 0.00 0.00 0.00 83 1016.0
20260902074850 59 148 2.0 6.0 0.00 0.00 0.00 83 1016.0
20260902074750 59 134 3.0 6.0 0.00 0.00 0.00 83 1016.0
20260902074652 59 133 3.0 6.0 0.00 0.00 0.00 83 1016.0
20260902074646 59 132 3.0 6.0 0.00 0.00 0.00 83 1016.0
20260902074549 59 163 3.0 6.0 0.00 0.00 0.00 83 1015.9
20260902074447 59 141 3.0 6.0 0.00 0.00 0.00 83 1015.9
20260902074346 59 141 2.0 6.0 0.00 0.00 0.00 83 1016.0
20260902074246 59 124 2.0 6.0 0.00 0.00 0.00 83 1016.0
20260902074151 59 199 2.0 5.0 0.00 0.00 0.00 83 1015.9
20260902074145 59 180 2.0 5.0 0.00 0.00 0.00 83 1015.9
20260902074047 59 143 2.0 5.0 0.00 0.00 0.00 83 1015.9
20260902073944 59 160 2.0 5.0 0.00 0.00 0.00 83 1016.0
20260902073844 59 121 1.0 4.0 0.00 0.00 0.00 83 1016.0
20260902073743 59 141 1.0 4.0 0.00 0.00 0.00 83 1016.0
20260902073650 59 149 1.0 4.0 0.00 0.00 0.00 83 1016.0
20260902073644 59 150 1.0 4.0 0.00 0.00 0.00 83 1016.0
20260902073547 59 142 1.0 4.0 0.00 0.00 0.00 83 1016.0
20260902073440 59 158 1.0 4.0 0.00 0.00 0.00 83 1016.0
20260902073338 59 124 1.0 4.0 0.00 0.00 0.00 83 1016.0
20260902073238 59 141 1.0 4.0 0.00 0.00 0.00 83 1016.0
20260902073144 59 150 1.0 4.0 0.00 0.00 0.00 83 1016.1
20260902073138 59 149 1.0 4.0 0.00 0.00 0.00 83 1016.1
20260902073038 59 150 1.0 4.0 0.00 0.00 0.00 83 1016.0
20260902072936 59 128 2.0 4.0 0.00 0.00 0.00 83 1016.0
20260902072836 59 136 2.0 4.0 0.00 0.00 0.00 83 1016.0
20260902072736 59 145 2.0 4.0 0.00 0.00 0.00 83 1016.0
20260902072641 59 132 1.0 4.0 0.00 0.00 0.00 83 1016.0
20260902072636 59 139 1.0 4.0 0.00 0.00 0.00 83 1016.0
20260902072536 59 129 2.0 4.0 0.00 0.00 0.00 83 1015.9
20260902072434 59 136 2.0 4.0 0.00 0.00 0.00 83 1015.9
20260902072335 59 127 1.0 4.0 0.00 0.00 0.00 83 1015.9
20260902072234 59 134 2.0 4.0 0.00 0.00 0.00 83 1015.9
20260902072141 59 138 2.0 4.0 0.00 0.00 0.00 83 1015.9
20260902072134 59 136 2.0 4.0 0.00 0.00 0.00 83 1015.9
20260902072034 59 119 2.0 4.0 0.00 0.00 0.00 83 1015.9
20260902071934 59 158 2.0 4.0 0.00 0.00 0.00 83 1015.9
20260902071834 59 142 2.0 4.0 0.00 0.00 0.00 83 1015.9
20260902071642 59 149 2.0 6.0 0.00 0.00 0.00 82 1015.9
20260902071633 59 150 2.0 6.0 0.00 0.00 0.00 82 1015.9
20260902071532 59 172 2.0 6.0 0.00 0.00 0.00 82 1015.9
20260902071433 59 143 2.0 6.0 0.00 0.00 0.00 82 1015.9
20260902071332 59 110 2.0 6.0 0.00 0.00 0.00 82 1015.9
20260902071231 59 95 2.0 6.0 0.00 0.00 0.00 82 1015.9
20260902071142 60 109 2.0 6.0 0.00 0.00 0.00 82 1015.9
20260902071136 60 103 2.0 6.0 0.00 0.00 0.00 82 1015.9
20260902071126 60 81 1.0 5.0 0.00 0.00 0.00 82 1015.9
20260902071032 60 113 2.0 6.0 0.00 0.00 0.00 82 1015.9
20260902071013 60 96 2.0 6.0 0.00 0.00 0.00 82 1015.9
20260902070831 60 98 2.0 6.0 0.00 0.00 0.00 82 1015.9
20260902070751 60 88 1.0 6.0 0.00 0.00 0.00 82 1015.9
20260902070632 60 110 1.0 5.0 0.00 0.00 0.00 82 1015.9
20260902070532 60 101 1.0 4.0 0.00 0.00 0.00 82 1015.9
20260902070432 60 110 1.0 4.0 0.00 0.00 0.00 82 1015.9
20260902070404 60 129 1.0 4.0 0.00 0.00 0.00 82 1015.9
20260902070332 60 110 1.0 4.0 0.00 0.00 0.00 82 1015.9
20260902070251 60 108 1.0 4.0 0.00 0.00 0.00 82 1015.9
20260902070132 60 110 1.0 4.0 0.00 0.00 0.00 82 1015.9
20260902070032 60 114 1.0 4.0 0.00 0.00 0.00 82 1015.8
20260902065930 60 114 1.0 4.0 0.00 0.00 0.00 82 1015.8
20260902065830 60 114 1.0 4.0 0.00 0.00 0.00 82 1015.8
20260902065730 60 114 2.0 4.0 0.00 0.00 0.00 82 1015.8
20260902065631 60 107 2.0 4.0 0.00 0.00 0.00 82 1015.8
20260902065527 60 92 2.0 4.0 0.00 0.00 0.00 82 1015.8
20260902065428 60 121 2.0 4.0 0.00 0.00 0.00 81 1015.8
20260902065324 60 121 2.0 4.0 0.00 0.00 0.00 81 1015.9
20260902065225 60 113 2.0 4.0 0.00 0.00 0.00 81 1015.9
20260902065138 60 91 1.0 4.0 0.00 0.00 0.00 81 1015.8
20260902065125 60 114 1.0 4.0 0.00 0.00 0.00 81 1015.8
20260902065023 60 107 1.0 4.0 0.00 0.00 0.00 81 1015.8
20260902064921 60 113 1.0 4.0 0.00 0.00 0.00 81 1015.8
20260902064857 61 129 1.0 3.0 0.00 0.00 0.00 81 1015.8
20260902064815 61 107 1.0 4.0 0.00 0.00 0.00 81 1015.9
20260902064746 61 116 1.0 3.0 0.00 0.00 0.00 81 1015.8
20260902064614 61 117 1.0 3.0 0.00 0.00 0.00 81 1015.8
20260902064515 61 120 1.0 4.0 0.00 0.00 0.00 81 1015.8
20260902064414 61 102 1.0 4.0 0.00 0.00 0.00 81 1015.8
20260902064311 61 107 1.0 4.0 0.00 0.00 0.00 81 1015.8
20260902064211 61 136 1.0 4.0 0.00 0.00 0.00 82 1015.7
20260902064134 61 138 1.0 4.0 0.00 0.00 0.00 81 1015.7
20260902064115 61 138 1.0 4.0 0.00 0.00 0.00 82 1015.7
20260902064111 61 138 2.0 4.0 0.00 0.00 0.00 81 1015.8
20260902064013 61 145 2.0 4.0 0.00 0.00 0.00 81 1015.7
20260902064005 61 146 2.0 4.0 0.00 0.00 0.00 81 1015.7
20260902063805 61 149 2.0 4.0 0.00 0.00 0.00 82 1015.8
20260902063743 61 162 1.0 4.0 0.00 0.00 0.00 82 1015.7
20260902063603 61 144 1.0 4.0 0.00 0.00 0.00 82 1015.8
20260902063503 61 131 1.0 4.0 0.00 0.00 0.00 81 1015.8
20260902063403 61 134 1.0 4.0 0.00 0.00 0.00 81 1015.8
20260902063257 61 121 1.0 4.0 0.00 0.00 0.00 81 1015.8
20260902063134 61 134 1.0 4.0 0.00 0.00 0.00 81 1015.8
20260902063056 61 134 1.0 4.0 0.00 0.00 0.00 81 1015.8
20260902062956 61 148 1.0 2.0 0.00 0.00 0.00 81 1015.9
20260902062857 61 130 1.0 2.0 0.00 0.00 0.00 81 1015.8
20260902062751 61 139 1.0 2.0 0.00 0.00 0.00 81 1015.9
20260902062631 61 127 1.0 3.0 0.00 0.00 0.00 81 1015.9
20260902062551 61 121 1.0 3.0 0.00 0.00 0.00 81 1015.9
20260902062450 61 121 1.0 3.0 0.00 0.00 0.00 81 1015.9
20260902062350 61 134 1.0 4.0 0.00 0.00 0.00 81 1015.8
20260902062250 61 136 1.0 4.0 0.00 0.00 0.00 81 1015.8
20260902062132 61 135 1.0 4.0 0.00 0.00 0.00 81 1015.8
20260902062050 61 136 2.0 5.0 0.00 0.00 0.00 81 1015.8
20260902061948 61 136 2.0 7.0 0.00 0.00 0.00 81 1015.8
20260902061844 61 181 2.0 7.0 0.00 0.00 0.00 81 1015.8
20260902061742 62 150 2.0 7.0 0.00 0.00 0.00 81 1015.8
20260902061632 62 141 2.0 7.0 0.00 0.00 0.00 81 1015.8
20260902061555 62 169 2.0 7.0 0.00 0.00 0.00 81 1015.8
20260902061551 62 143 2.0 7.0 0.00 0.00 0.00 81 1015.8
20260902061343 62 228 2.0 7.0 0.00 0.00 0.00 81 1015.8
20260902061243 62 176 2.0 7.0 0.00 0.00 0.00 81 1015.8
20260902061130 62 226 2.0 7.0 0.00 0.00 0.00 81 1015.7
20260902061045 62 236 2.0 7.0 0.00 0.00 0.00 81 1015.7
20260902060939 62 194 2.0 7.0 0.00 0.00 0.00 81 1015.7
20260902060850 62 233 2.0 7.0 0.00 0.00 0.00 80 1015.7
20260902060838 62 204 2.0 7.0 0.00 0.00 0.00 80 1015.7
20260902060746 62 174 2.0 7.0 0.00 0.00 0.00 80 1015.8
20260902060738 62 233 2.0 7.0 0.00 0.00 0.00 80 1015.7
20260902060544 62 218 3.0 8.0 0.00 0.00 0.00 80 1015.8
20260902060438 62 141 3.0 8.0 0.00 0.00 0.00 80 1015.7
20260902060338 62 226 2.0 8.0 0.00 0.00 0.00 80 1015.7
20260902060238 62 235 3.0 8.0 0.00 0.00 0.00 80 1015.7
20260902060138 62 235 3.0 8.0 0.00 0.00 0.00 80 1015.8
20260902060128 62 200 3.0 8.0 0.00 0.00 0.00 80 1015.8
20260902060037 62 236 3.0 8.0 0.00 0.00 0.00 80 1015.7
20260902055934 62 236 3.0 8.0 0.00 0.00 0.00 80 1015.7
20260902055835 62 195 3.0 8.0 0.00 0.00 0.00 80 1015.8
20260902055732 62 232 3.0 8.0 0.00 0.00 0.00 80 1015.8
20260902055632 62 233 3.0 8.0 0.00 0.00 0.00 80 1015.8
20260902055530 62 229 3.0 7.0 0.00 0.00 0.00 80 1015.9
20260902055430 62 228 3.0 7.0 0.00 0.00 0.00 80 1015.8
20260902055330 62 232 3.0 7.0 0.00 0.00 0.00 80 1015.9
20260902055230 62 258 3.0 7.0 0.00 0.00 0.00 80 1015.8
20260902055131 62 267 3.0 6.0 0.00 0.00 0.00 80 1015.9
20260902055024 62 217 3.0 6.0 0.00 0.00 0.00 80 1015.8
20260902054925 62 228 3.0 9.0 0.00 0.00 0.00 80 1015.9
20260902054824 62 226 3.0 9.0 0.00 0.00 0.00 80 1015.8
20260902054722 62 231 3.0 9.0 0.00 0.00 0.00 80 1015.8
20260902054628 62 236 3.0 9.0 0.00 0.00 0.00 80 1015.9
20260902054623 62 242 3.0 9.0 0.00 0.00 0.00 80 1015.9
20260902054516 62 250 4.0 9.0 0.00 0.00 0.00 80 1015.9
20260902054424 62 239 4.0 9.0 0.00 0.00 0.00 80 1015.9
20260902054317 62 269 4.0 9.0 0.00 0.00 0.00 80 1015.9
20260902054217 62 239 4.0 9.0 0.00 0.00 0.00 80 1015.9
20260902054126 62 233 4.0 9.0 0.00 0.00 0.00 79 1015.9
20260902054116 62 219 4.0 10.0 0.00 0.00 0.00 79 1015.9
20260902054011 62 176 4.0 10.0 0.00 0.00 0.00 79 1015.9
20260902053911 62 236 4.0 10.0 0.00 0.00 0.00 79 1015.9
20260902053810 62 248 4.0 10.0 0.00 0.00 0.00 79 1015.9
20260902053710 62 204 4.0 10.0 0.00 0.00 0.00 79 1015.9
20260902053625 62 207 4.0 10.0 0.00 0.00 0.00 79 1015.9
20260902053611 62 238 4.0 11.0 0.00 0.00 0.00 79 1015.9
20260902053504 62 231 4.0 11.0 0.00 0.00 0.00 79 1015.9
20260902053404 62 228 4.0 11.0 0.00 0.00 0.00 79 1015.8
20260902053304 62 256 5.0 11.0 0.00 0.00 0.00 79 1015.9
20260902053206 62 218 5.0 11.0 0.00 0.00 0.00 79 1015.8
20260902053139 62 215 5.0 11.0 0.00 0.00 0.00 79 1015.8
20260902053105 62 252 5.0 11.0 0.00 0.00 0.00 79 1015.8
20260902053000 62 229 5.0 11.0 0.00 0.00 0.00 79 1015.8
20260902052900 62 207 5.0 11.0 0.00 0.00 0.00 79 1015.8
20260902052849 62 195 5.0 11.0 0.00 0.00 0.00 78 1015.8
20260902052801 62 248 5.0 11.0 0.00 0.00 0.00 78 1015.8
20260902052736 62 238 5.0 11.0 0.00 0.00 0.00 78 1015.8
20260902052559 62 219 5.0 11.0 0.00 0.00 0.00 78 1015.8
20260902052452 62 225 5.0 11.0 0.00 0.00 0.00 78 1015.9
20260902052353 62 207 5.0 11.0 0.00 0.00 0.00 78 1015.8
20260902052153 62 253 4.0 10.0 0.00 0.00 0.00 78 1015.8
20260902052126 62 226 4.0 10.0 0.00 0.00 0.00 78 1015.8
20260902052053 63 256 4.0 10.0 0.00 0.00 0.00 78 1015.9
20260902051949 63 225 4.0 10.0 0.00 0.00 0.00 78 1015.9
20260902051847 63 214 5.0 11.0 0.00 0.00 0.00 78 1015.9
20260902051746 63 243 5.0 11.0 0.00 0.00 0.00 78 1015.9
20260902051646 63 256 5.0 11.0 0.00 0.00 0.00 77 1015.9
20260902051625 63 236 5.0 11.0 0.00 0.00 0.00 77 1015.9
20260902051547 63 243 5.0 11.0 0.00 0.00 0.00 77 1015.9
20260902051443 63 216 5.0 11.0 0.00 0.00 0.00 77 1015.8
20260902051341 63 225 4.0 11.0 0.00 0.00 0.00 77 1015.8
20260902051240 63 222 5.0 13.0 0.00 0.00 0.00 77 1015.8
20260902051125 63 231 5.0 13.0 0.00 0.00 0.00 77 1015.8
20260902051050 63 281 5.0 13.0 0.00 0.00 0.00 77 1015.9
20260902050935 63 236 6.0 13.0 0.00 0.00 0.00 77 1015.9
20260902050834 63 228 6.0 15.0 0.00 0.00 0.00 77 1015.9
20260902050735 63 253 6.0 15.0 0.00 0.00 0.00 77 1015.9
20260902050636 63 274 6.0 15.0 0.00 0.00 0.00 77 1015.8
20260902050626 63 232 6.0 15.0 0.00 0.00 0.00 77 1015.8
20260902050534 63 235 6.0 15.0 0.00 0.00 0.00 77 1015.8
20260902050431 63 229 6.0 15.0 0.00 0.00 0.00 77 1015.8
20260902050328 63 228 7.0 15.0 0.00 0.00 0.00 77 1015.8
20260902050229 63 250 7.0 15.0 0.00 0.00 0.00 77 1015.9
20260902050130 63 267 7.0 15.0 0.00 0.00 0.00 77 1015.9
20260902050030 63 250 6.0 15.0 0.00 0.00 0.00 77 1015.8
20260902045924 63 210 6.0 15.0 0.00 0.00 0.00 76 1015.7
20260902045827 63 233 5.0 13.0 0.00 0.00 0.00 76 1015.7
20260902045727 63 246 5.0 13.0 0.00 0.00 0.00 76 1015.7
20260902045629 63 239 5.0 13.0 0.00 0.00 0.00 76 1015.7
20260902045623 63 231 5.0 13.0 0.00 0.00 0.00 76 1015.7
20260902045522 63 242 5.0 13.0 0.00 0.00 0.00 76 1015.7
20260902045418 63 195 4.0 13.0 0.00 0.00 0.00 76 1015.8
20260902045351 63 236 3.0 13.0 0.00 0.00 0.00 75 1015.8
20260902045318 63 253 4.0 13.0 0.00 0.00 0.00 76 1015.8
20260902045235 63 221 4.0 13.0 0.00 0.00 0.00 76 1015.8
20260902045120 63 266 3.0 13.0 0.00 0.00 0.00 75 1015.8
20260902045017 63 236 4.0 11.0 0.00 0.00 0.00 75 1015.8
20260902044910 63 221 4.0 11.0 0.00 0.00 0.00 75 1015.8
20260902044810 63 228 4.0 11.0 0.00 0.00 0.00 75 1015.8
20260902044714 63 210 4.0 11.0 0.00 0.00 0.00 75 1015.8
20260902044625 63 245 4.0 11.0 0.00 0.00 0.00 75 1015.8
20260902044611 63 242 4.0 11.0 0.00 0.00 0.00 75 1015.7
20260902044511 64 248 4.0 12.0 0.00 0.00 0.00 74 1015.7
20260902044414 64 256 5.0 12.0 0.00 0.00 0.00 74 1015.8
20260902044308 64 228 5.0 12.0 0.00 0.00 0.00 74 1015.8
20260902044208 64 230 5.0 12.0 0.00 0.00 0.00 74 1015.8
20260902044126 64 264 5.0 12.0 0.00 0.00 0.00 74 1015.8
20260902044109 64 232 6.0 12.0 0.00 0.00 0.00 74 1015.8
20260902044009 64 262 6.0 12.0 0.00 0.00 0.00 74 1015.8
20260902043908 64 204 6.0 12.0 0.00 0.00 0.00 74 1015.8
20260902043808 64 215 6.0 12.0 0.00 0.00 0.00 74 1015.7
20260902043709 64 250 6.0 12.0 0.00 0.00 0.00 73 1015.7
20260902043625 64 248 6.0 12.0 0.00 0.00 0.00 73 1015.7
20260902043610 64 239 5.0 12.0 0.00 0.00 0.00 73 1015.7
20260902043509 64 236 5.0 12.0 0.00 0.00 0.00 73 1015.7
20260902043412 64 230 5.0 12.0 0.00 0.00 0.00 73 1015.7
20260902043308 64 240 5.0 12.0 0.00 0.00 0.00 73 1015.6
20260902043208 64 219 5.0 12.0 0.00 0.00 0.00 73 1015.6
20260902043124 64 236 5.0 12.0 0.00 0.00 0.00 73 1015.6
20260902043110 64 183 5.0 12.0 0.00 0.00 0.00 73 1015.6
20260902043009 64 231 5.0 12.0 0.00 0.00 0.00 72 1015.6
20260902042908 64 237 5.0 12.0 0.00 0.00 0.00 72 1015.6
20260902042811 64 245 5.0 12.0 0.00 0.00 0.00 72 1015.6
20260902042708 64 230 4.0 12.0 0.00 0.00 0.00 72 1015.6
20260902042639 64 211 4.0 12.0 0.00 0.00 0.00 72 1015.6
20260902042604 64 225 5.0 12.0 0.00 0.00 0.00 72 1015.6
20260902042502 64 264 5.0 12.0 0.00 0.00 0.00 72 1015.6
20260902042403 64 219 4.0 12.0 0.00 0.00 0.00 71 1015.6
20260902042308 64 223 4.0 12.0 0.00 0.00 0.00 71 1015.6
20260902042157 64 233 4.0 12.0 0.00 0.00 0.00 71 1015.6
20260902042118 64 253 5.0 12.0 0.00 0.00 0.00 71 1015.6
20260902042057 64 225 5.0 12.0 0.00 0.00 0.00 71 1015.6
20260902041956 64 236 4.0 12.0 0.00 0.00 0.00 71 1015.6
20260902041856 64 260 4.0 12.0 0.00 0.00 0.00 71 1015.6
20260902041756 64 226 5.0 12.0 0.00 0.00 0.00 71 1015.6
20260902041651 64 200 5.0 16.0 0.00 0.00 0.00 70 1015.5
20260902041611 64 242 5.0 16.0 0.00 0.00 0.00 70 1015.5
20260902041550 65 224 5.0 16.0 0.00 0.00 0.00 70 1015.5
20260902041450 65 239 5.0 16.0 0.00 0.00 0.00 70 1015.5
20260902041350 65 256 5.0 16.0 0.00 0.00 0.00 70 1015.5
20260902041250 65 253 5.0 16.0 0.00 0.00 0.00 70 1015.5
20260902041145 65 250 6.0 16.0 0.00 0.00 0.00 70 1015.5
20260902041105 65 228 6.0 16.0 0.00 0.00 0.00 69 1015.4
20260902041045 65 186 6.0 16.0 0.00 0.00 0.00 69 1015.4
20260902040944 65 242 6.0 16.0 0.00 0.00 0.00 69 1015.4